Wetterdaten: Montag, 10.02.2020
Datum Zeit Temp. Aussen Temp. o. S. Temp +5cm Feuchte Auss Luftdruck Regen Sonnenschein Regendauer Solar Windben Empfang
10.02.2020 00:00 11,8 C 10,0 C 9,4 C 93 % 989,5 hPa 0,4 l/m 0 min 2 min 0 W/m 25,7 km/h (4 Bft) 97,87 %
10.02.2020 00:02 11,7 C 10,0 C 9,4 C 93 % 989,6 hPa 0,0 l/m 0 min 2 min 0 W/m 35,4 km/h (5 Bft) 94,74 %
10.02.2020 00:04 11,7 C 10,0 C 9,4 C 94 % 989,6 hPa 0,0 l/m 0 min 2 min 0 W/m 32,2 km/h (5 Bft) 98,08 %
10.02.2020 00:08 11,7 C 10,0 C 9,4 C 94 % 989,6 hPa 0,0 l/m 0 min 4 min 0 W/m 29,0 km/h (5 Bft) 97,85 %
10.02.2020 00:10 11,7 C 10,0 C 9,4 C 94 % 989,7 hPa 0,0 l/m 0 min 2 min 0 W/m 16,1 km/h (3 Bft) 97,87 %
10.02.2020 00:12 11,6 C 10,0 C 9,4 C 94 % 989,7 hPa 0,0 l/m 0 min 2 min 0 W/m 25,7 km/h (4 Bft) 95,74 %
10.02.2020 00:14 11,6 C 10,0 C 9,4 C 94 % 989,8 hPa 0,4 l/m 0 min 2 min 0 W/m 19,3 km/h (3 Bft) 95,74 %
10.02.2020 00:16 11,6 C 10,0 C 9,4 C 94 % 989,8 hPa 0,2 l/m 0 min 2 min 0 W/m 22,5 km/h (4 Bft) 95,74 %
10.02.2020 00:18 11,6 C 9,4 C 9,4 C 94 % 989,0 hPa 0,0 l/m 0 min 2 min 0 W/m 35,4 km/h (5 Bft) 95,74 %
10.02.2020 00:20 11,5 C 9,4 C 9,4 C 94 % 989,2 hPa 0,0 l/m 0 min 2 min 0 W/m 25,7 km/h (4 Bft) 93,48 %
10.02.2020 00:22 11,4 C 9,4 C 9,4 C 94 % 989,3 hPa 0,0 l/m 0 min 2 min 0 W/m 38,6 km/h (5 Bft) 95,74 %
10.02.2020 00:24 11,4 C 9,4 C 9,4 C 94 % 989,4 hPa 0,0 l/m 0 min 2 min 0 W/m 29,0 km/h (5 Bft) 95,74 %
10.02.2020 00:26 11,3 C 9,4 C 8,9 C 94 % 989,4 hPa 0,0 l/m 0 min 2 min 0 W/m 35,4 km/h (5 Bft) 95,74 %
10.02.2020 00:28 11,3 C 9,4 C 8,9 C 94 % 989,5 hPa 0,0 l/m 0 min 2 min 0 W/m 35,4 km/h (5 Bft) 95,74 %
10.02.2020 00:30 11,3 C 9,4 C 8,9 C 93 % 989,3 hPa 0,0 l/m 0 min 2 min 0 W/m 29,0 km/h (5 Bft) 95,74 %
10.02.2020 00:32 11,3 C 9,4 C 8,9 C 93 % 989,4 hPa 0,0 l/m 0 min 2 min 0 W/m 35,4 km/h (5 Bft) 95,65 %
10.02.2020 00:34 11,2 C 9,4 C 8,9 C 93 % 989,7 hPa 0,0 l/m 0 min 2 min 0 W/m 38,6 km/h (5 Bft) 95,74 %
10.02.2020 00:36 11,2 C 9,4 C 8,9 C 92 % 989,7 hPa 0,0 l/m 0 min 2 min 0 W/m 25,7 km/h (4 Bft) 95,74 %
10.02.2020 00:38 11,2 C 9,4 C 8,9 C 92 % 989,9 hPa 0,0 l/m 0 min 2 min 0 W/m 29,0 km/h (5 Bft) 93,62 %
10.02.2020 00:40 11,2 C 9,4 C 8,9 C 91 % 990,1 hPa 0,0 l/m 0 min 2 min 0 W/m 22,5 km/h (4 Bft) 95,74 %
10.02.2020 00:42 11,2 C 9,4 C 8,9 C 91 % 989,9 hPa 0,0 l/m 0 min 2 min 0 W/m 29,0 km/h (5 Bft) 93,48 %
10.02.2020 00:44 11,2 C 9,4 C 8,9 C 91 % 989,7 hPa 0,0 l/m 0 min 2 min 0 W/m 38,6 km/h (5 Bft) 97,87 %
10.02.2020 00:46 11,2 C 9,4 C 8,9 C 91 % 989,6 hPa 0,0 l/m 0 min 2 min 0 W/m 22,5 km/h (4 Bft) 97,87 %
10.02.2020 00:48 11,2 C 9,4 C 8,9 C 91 % 989,3 hPa 0,0 l/m 0 min 2 min 0 W/m 25,7 km/h (4 Bft) 97,87 %
10.02.2020 00:50 11,2 C 9,4 C 8,9 C 91 % 989,2 hPa 0,0 l/m 0 min 2 min 0 W/m 35,4 km/h (5 Bft) 97,87 %
10.02.2020 00:52 11,2 C 9,4 C 8,9 C 90 % 989,4 hPa 0,0 l/m 0 min 2 min 0 W/m 32,2 km/h (5 Bft) 97,87 %
10.02.2020 00:54 11,2 C 9,4 C 8,9 C 90 % 989,6 hPa 0,0 l/m 0 min 0 min 0 W/m 38,6 km/h (5 Bft) 95,74 %
10.02.2020 00:56 11,2 C 9,4 C 8,9 C 89 % 989,8 hPa 0,0 l/m 0 min 0 min 0 W/m 35,4 km/h (5 Bft) 97,83 %
10.02.2020 00:58 11,2 C 9,4 C 8,9 C 89 % 989,9 hPa 0,0 l/m 0 min 0 min 0 W/m 38,6 km/h (5 Bft) 97,87 %
10.02.2020 01:00 11,2 C 10,0 C 8,9 C 88 % 990,0 hPa 0,0 l/m 0 min 0 min 0 W/m 48,3 km/h (6 Bft) 100,00 %
10.02.2020 01:02 11,2 C 10,0 C 8,9 C 87 % 989,9 hPa 0,0 l/m 0 min 0 min 0 W/m 51,5 km/h (7 Bft) 100,00 %
10.02.2020 01:04 11,3 C 10,0 C 8,9 C 87 % 989,9 hPa 0,0 l/m 0 min 0 min 0 W/m 35,4 km/h (5 Bft) 97,87 %
10.02.2020 01:06 11,3 C 9,4 C 8,3 C 86 % 989,7 hPa 0,0 l/m 0 min 2 min 0 W/m 45,1 km/h (6 Bft) 100,00 %
10.02.2020 01:08 11,2 C 8,9 C 8,3 C 86 % 989,5 hPa 0,0 l/m 0 min 2 min 0 W/m 32,2 km/h (5 Bft) 100,00 %
10.02.2020 01:10 11,2 C 8,3 C 7,8 C 86 % 989,6 hPa 0,2 l/m 0 min 2 min 0 W/m 22,5 km/h (4 Bft) 100,00 %
10.02.2020 01:12 11,2 C 8,3 C 7,8 C 87 % 989,9 hPa 0,0 l/m 0 min 2 min 0 W/m 45,1 km/h (6 Bft) 100,00 %
10.02.2020 01:14 11,1 C 8,3 C 7,8 C 86 % 989,9 hPa 0,0 l/m 0 min 2 min 0 W/m 38,6 km/h (5 Bft) 97,87 %
10.02.2020 01:16 11,1 C 8,3 C 7,8 C 86 % 989,8 hPa 0,0 l/m 0 min 2 min 0 W/m 22,5 km/h (4 Bft) 100,00 %
10.02.2020 01:18 11,1 C 8,3 C 7,8 C 86 % 989,7 hPa 0,0 l/m 0 min 2 min 0 W/m 35,4 km/h (5 Bft) 100,00 %
10.02.2020 01:20 11,0 C 8,9 C 7,8 C 86 % 989,4 hPa 0,0 l/m 0 min 2 min 0 W/m 32,2 km/h (5 Bft) 100,00 %
10.02.2020 01:22 10,9 C 8,9 C 7,8 C 86 % 989,7 hPa 0,0 l/m 0 min 2 min 0 W/m 25,7 km/h (4 Bft) 100,00 %
10.02.2020 01:24 10,9 C 8,9 C 7,8 C 86 % 989,8 hPa 0,0 l/m 0 min 2 min 0 W/m 22,5 km/h (4 Bft) 100,00 %
10.02.2020 01:26 10,9 C 9,4 C 8,3 C 86 % 989,7 hPa 0,0 l/m 0 min 2 min 0 W/m 25,7 km/h (4 Bft) 100,00 %
10.02.2020 01:28 10,8 C 9,4 C 8,3 C 86 % 989,7 hPa 0,0 l/m 0 min 2 min 0 W/m 38,6 km/h (5 Bft) 100,00 %
10.02.2020 01:30 10,8 C 9,4 C 8,3 C 86 % 989,7 hPa 0,0 l/m 0 min 0 min 0 W/m 35,4 km/h (5 Bft) 100,00 %
10.02.2020 01:32 10,8 C 9,4 C 8,3 C 85 % 989,8 hPa 0,0 l/m 0 min 0 min 0 W/m 29,0 km/h (5 Bft) 100,00 %
10.02.2020 01:34 10,8 C 9,4 C 8,3 C 85 % 990,0 hPa 0,0 l/m 0 min 0 min 0 W/m 29,0 km/h (5 Bft) 100,00 %
10.02.2020 01:36 10,8 C 10,0 C 8,9 C 85 % 989,8 hPa 0,0 l/m 0 min 0 min 0 W/m 25,7 km/h (4 Bft) 100,00 %
10.02.2020 01:38 10,8 C 10,0 C 8,9 C 85 % 989,7 hPa 0,0 l/m 0 min 0 min 0 W/m 48,3 km/h (6 Bft) 100,00 %
10.02.2020 01:40 10,8 C 10,0 C 8,9 C 85 % 989,6 hPa 0,0 l/m 0 min 0 min 0 W/m 22,5 km/h (4 Bft) 97,87 %
10.02.2020 01:42 10,8 C 10,0 C 8,9 C 85 % 989,5 hPa 0,0 l/m 0 min 0 min 0 W/m 22,5 km/h (4 Bft) 97,83 %
10.02.2020 01:44 10,8 C 10,0 C 8,9 C 85 % 989,6 hPa 0,0 l/m 0 min 0 min 0 W/m 22,5 km/h (4 Bft) 100,00 %
10.02.2020 01:46 10,7 C 10,0 C 8,9 C 85 % 989,7 hPa 0,0 l/m 0 min 0 min 0 W/m 32,2 km/h (5 Bft) 100,00 %
10.02.2020 01:48 10,7 C 10,0 C 8,9 C 84 % 990,1 hPa 0,0 l/m 0 min 0 min 0 W/m 35,4 km/h (5 Bft) 97,87 %
10.02.2020 01:50 10,7 C 10,0 C 9,4 C 84 % 990,1 hPa 0,0 l/m 0 min 0 min 0 W/m 32,2 km/h (5 Bft) 100,00 %
10.02.2020 01:52 10,8 C 10,0 C 9,4 C 84 % 990,0 hPa 0,0 l/m 0 min 0 min 0 W/m 29,0 km/h (5 Bft) 100,00 %
10.02.2020 01:54 10,8 C 10,0 C 9,4 C 83 % 990,1 hPa 0,0 l/m 0 min 0 min 0 W/m 38,6 km/h (5 Bft) 100,00 %
10.02.2020 01:56 10,8 C 10,0 C 9,4 C 83 % 990,2 hPa 0,0 l/m 0 min 0 min 0 W/m 25,7 km/h (4 Bft) 100,00 %
10.02.2020 01:58 10,8 C 10,0 C 9,4 C 83 % 990,0 hPa 0,0 l/m 0 min 0 min 0 W/m 29,0 km/h (5 Bft) 100,00 %
10.02.2020 02:00 10,8 C 10,0 C 9,4 C 83 % 989,9 hPa 0,0 l/m 0 min 0 min 0 W/m 25,7 km/h (4 Bft) 97,87 %
10.02.2020 02:02 10,8 C 10,0 C 9,4 C 82 % 990,0 hPa 0,0 l/m 0 min 0 min 0 W/m 22,5 km/h (4 Bft) 100,00 %
10.02.2020 02:04 10,8 C 10,0 C 9,4 C 82 % 990,1 hPa 0,0 l/m 0 min 0 min 0 W/m 22,5 km/h (4 Bft) 100,00 %
10.02.2020 02:06 10,8 C 10,0 C 9,4 C 82 % 990,0 hPa 0,0 l/m 0 min 0 min 0 W/m 22,5 km/h (4 Bft) 100,00 %
10.02.2020 02:08 10,8 C 10,0 C 9,4 C 82 % 990,1 hPa 0,0 l/m 0 min 0 min 0 W/m 32,2 km/h (5 Bft) 100,00 %
10.02.2020 02:10 10,8 C 10,6 C 9,4 C 81 % 990,1 hPa 0,0 l/m 0 min 0 min 0 W/m 38,6 km/h (5 Bft) 100,00 %
10.02.2020 02:12 10,8 C 10,6 C 9,4 C 81 % 990,2 hPa 0,0 l/m 0 min 0 min 0 W/m 29,0 km/h (5 Bft) 100,00 %
10.02.2020 02:14 10,8 C 10,0 C 9,4 C 81 % 990,1 hPa 0,0 l/m 0 min 0 min 0 W/m 25,7 km/h (4 Bft) 100,00 %
10.02.2020 02:16 10,9 C 10,6 C 9,4 C 80 % 990,1 hPa 0,0 l/m 0 min 0 min 0 W/m 41,8 km/h (6 Bft) 95,65 %
10.02.2020 02:18 10,9 C 10,0 C 9,4 C 80 % 990,2 hPa 0,0 l/m 0 min 0 min 0 W/m 32,2 km/h (5 Bft) 100,00 %
10.02.2020 02:20 10,9 C 10,0 C 9,4 C 81 % 990,5 hPa 0,0 l/m 0 min 0 min 0 W/m 29,0 km/h (5 Bft) 97,87 %
10.02.2020 02:22 10,9 C 10,0 C 9,4 C 81 % 990,6 hPa 0,0 l/m 0 min 0 min 0 W/m 35,4 km/h (5 Bft) 100,00 %
10.02.2020 02:24 10,9 C 10,0 C 9,4 C 80 % 990,7 hPa 0,0 l/m 0 min 0 min 0 W/m 38,6 km/h (5 Bft) 100,00 %
10.02.2020 02:26 10,9 C 10,0 C 9,4 C 80 % 990,6 hPa 0,0 l/m 0 min 0 min 0 W/m 29,0 km/h (5 Bft) 95,74 %
10.02.2020 02:28 10,9 C 10,6 C 9,4 C 80 % 990,5 hPa 0,0 l/m 0 min 0 min 0 W/m 38,6 km/h (5 Bft) 97,83 %
10.02.2020 02:30 10,9 C 10,0 C 9,4 C 80 % 990,5 hPa 0,0 l/m 0 min 0 min 0 W/m 25,7 km/h (4 Bft) 95,74 %
10.02.2020 02:32 10,9 C 10,0 C 9,4 C 80 % 990,6 hPa 0,0 l/m 0 min 0 min 0 W/m 25,7 km/h (4 Bft) 95,74 %
10.02.2020 02:34 10,9 C 10,6 C 9,4 C 79 % 990,5 hPa 0,0 l/m 0 min 0 min 0 W/m 38,6 km/h (5 Bft) 95,74 %
10.02.2020 02:36 10,9 C 10,6 C 9,4 C 79 % 990,4 hPa 0,0 l/m 0 min 0 min 0 W/m 38,6 km/h (5 Bft) 95,74 %
10.02.2020 02:38 10,9 C 10,0 C 9,4 C 79 % 990,4 hPa 0,0 l/m 0 min 0 min 0 W/m 29,0 km/h (5 Bft) 95,74 %
10.02.2020 02:40 10,9 C 10,0 C 9,4 C 79 % 990,3 hPa 0,0 l/m 0 min 0 min 0 W/m 22,5 km/h (4 Bft) 95,65 %
10.02.2020 02:42 10,9 C 10,0 C 9,4 C 79 % 990,4 hPa 0,0 l/m 0 min 0 min 0 W/m 16,1 km/h (3 Bft) 47,37 %
10.02.2020 02:44 10,9 C 10,0 C 9,4 C 79 % 990,2 hPa 0,0 l/m 0 min 0 min 0 W/m 32,2 km/h (5 Bft) 95,74 %
10.02.2020 02:46 10,9 C 10,0 C 9,4 C 79 % 990,2 hPa 0,0 l/m 0 min 0 min 0 W/m 22,5 km/h (4 Bft) 95,74 %
10.02.2020 02:48 10,8 C 10,0 C 9,4 C 79 % 990,3 hPa 0,0 l/m 0 min 0 min 0 W/m 25,7 km/h (4 Bft) 95,74 %
10.02.2020 02:50 10,8 C 10,0 C 9,4 C 79 % 990,3 hPa 0,0 l/m 0 min 0 min 0 W/m 32,2 km/h (5 Bft) 95,74 %
10.02.2020 02:52 10,8 C 10,0 C 9,4 C 79 % 990,4 hPa 0,0 l/m 0 min 0 min 0 W/m 25,7 km/h (4 Bft) 93,48 %
10.02.2020 02:54 10,8 C 10,0 C 9,4 C 79 % 990,4 hPa 0,0 l/m 0 min 0 min 0 W/m 22,5 km/h (4 Bft) 95,74 %
10.02.2020 02:56 10,8 C 10,0 C 9,4 C 79 % 990,6 hPa 0,0 l/m 0 min 0 min 0 W/m 35,4 km/h (5 Bft) 95,74 %
10.02.2020 02:58 10,8 C 10,0 C 9,4 C 79 % 990,5 hPa 0,0 l/m 0 min 0 min 0 W/m 29,0 km/h (5 Bft) 91,49 %
10.02.2020 03:00 10,8 C 10,0 C 9,4 C 79 % 990,6 hPa 0,0 l/m 0 min 0 min 0 W/m 48,3 km/h (6 Bft) 95,74 %
10.02.2020 03:02 10,8 C 10,0 C 9,4 C 79 % 990,6 hPa 0,0 l/m 0 min 0 min 0 W/m 29,0 km/h (5 Bft) 93,62 %
10.02.2020 03:04 10,8 C 10,0 C 9,4 C 79 % 990,6 hPa 0,0 l/m 0 min 0 min 0 W/m 38,6 km/h (5 Bft) 93,48 %
10.02.2020 03:06 10,8 C 10,0 C 9,4 C 79 % 990,5 hPa 0,0 l/m 0 min 0 min 0 W/m 29,0 km/h (5 Bft) 95,74 %
10.02.2020 03:08 10,8 C 10,0 C 8,9 C 79 % 990,6 hPa 0,0 l/m 0 min 2 min 0 W/m 32,2 km/h (5 Bft) 93,62 %
10.02.2020 03:10 10,8 C 10,0 C 8,9 C 79 % 990,6 hPa 0,0 l/m 0 min 2 min 0 W/m 38,6 km/h (5 Bft) 93,62 %
10.02.2020 03:12 10,8 C 9,4 C 8,9 C 79 % 990,6 hPa 0,0 l/m 0 min 2 min 0 W/m 22,5 km/h (4 Bft) 93,62 %
10.02.2020 03:14 10,8 C 9,4 C 8,3 C 80 % 990,6 hPa 0,0 l/m 0 min 2 min 0 W/m 29,0 km/h (5 Bft) 91,30 %
10.02.2020 03:16 10,8 C 9,4 C 8,3 C 80 % 990,7 hPa 0,0 l/m 0 min 2 min 0 W/m 29,0 km/h (5 Bft) 95,74 %
10.02.2020 03:18 10,7 C 8,9 C 8,3 C 81 % 990,7 hPa 0,0 l/m 0 min 2 min 0 W/m 25,7 km/h (4 Bft) 95,74 %
10.02.2020 03:20 10,7 C 8,9 C 8,3 C 81 % 990,7 hPa 0,0 l/m 0 min 2 min 0 W/m 22,5 km/h (4 Bft) 93,62 %
10.02.2020 03:22 10,7 C 8,9 C 8,3 C 81 % 990,6 hPa 0,0 l/m 0 min 2 min 0 W/m 22,5 km/h (4 Bft) 93,62 %
10.02.2020 03:24 10,6 C 8,9 C 7,8 C 82 % 990,6 hPa 0,0 l/m 0 min 2 min 0 W/m 29,0 km/h (5 Bft) 95,74 %
10.02.2020 03:26 10,6 C 8,9 C 7,8 C 82 % 990,6 hPa 0,0 l/m 0 min 2 min 0 W/m 19,3 km/h (3 Bft) 97,83 %
10.02.2020 03:28 10,5 C 8,9 C 7,8 C 82 % 990,4 hPa 0,0 l/m 0 min 2 min 0 W/m 32,2 km/h (5 Bft) 97,87 %
10.02.2020 03:30 10,5 C 8,9 C 7,8 C 82 % 990,3 hPa 0,0 l/m 0 min 2 min 0 W/m 25,7 km/h (4 Bft) 95,74 %
10.02.2020 03:32 10,4 C 8,9 C 8,3 C 83 % 990,6 hPa 0,0 l/m 0 min 2 min 0 W/m 19,3 km/h (3 Bft) 97,87 %
10.02.2020 03:34 10,4 C 9,4 C 8,3 C 83 % 990,6 hPa 0,0 l/m 0 min 2 min 0 W/m 29,0 km/h (5 Bft) 97,87 %
10.02.2020 03:36 10,4 C 9,4 C 8,9 C 83 % 990,6 hPa 0,0 l/m 0 min 2 min 0 W/m 41,8 km/h (6 Bft) 97,87 %
10.02.2020 03:38 10,4 C 9,4 C 8,9 C 83 % 990,6 hPa 0,0 l/m 0 min 2 min 0 W/m 25,7 km/h (4 Bft) 97,83 %
10.02.2020 03:40 10,3 C 9,4 C 8,9 C 83 % 990,5 hPa 0,0 l/m 0 min 2 min 0 W/m 29,0 km/h (5 Bft) 97,87 %
10.02.2020 03:42 10,3 C 9,4 C 8,9 C 83 % 990,5 hPa 0,0 l/m 0 min 2 min 0 W/m 32,2 km/h (5 Bft) 97,87 %
10.02.2020 03:44 10,3 C 9,4 C 8,9 C 83 % 990,4 hPa 0,0 l/m 0 min 2 min 0 W/m 29,0 km/h (5 Bft) 97,87 %
10.02.2020 03:46 10,3 C 10,0 C 8,9 C 83 % 990,3 hPa 0,0 l/m 0 min 2 min 0 W/m 25,7 km/h (4 Bft) 97,87 %
10.02.2020 03:48 10,3 C 10,0 C 8,9 C 82 % 990,5 hPa 0,0 l/m 0 min 2 min 0 W/m 41,8 km/h (6 Bft) 97,87 %
10.02.2020 03:50 10,3 C 10,0 C 8,9 C 82 % 990,4 hPa 0,0 l/m 0 min 2 min 0 W/m 51,5 km/h (7 Bft) 100,00 %
10.02.2020 03:52 10,3 C 10,0 C 8,9 C 82 % 990,6 hPa 0,0 l/m 0 min 2 min 0 W/m 45,1 km/h (6 Bft) 100,00 %
10.02.2020 03:54 10,4 C 10,0 C 9,4 C 81 % 990,6 hPa 0,0 l/m 0 min 2 min 0 W/m 45,1 km/h (6 Bft) 100,00 %
10.02.2020 03:56 10,4 C 10,0 C 8,9 C 81 % 990,8 hPa 0,0 l/m 0 min 2 min 0 W/m 32,2 km/h (5 Bft) 100,00 %
10.02.2020 03:58 10,4 C 10,0 C 8,9 C 81 % 990,8 hPa 0,0 l/m 0 min 2 min 0 W/m 19,3 km/h (3 Bft) 100,00 %
10.02.2020 04:00 10,4 C 10,0 C 8,9 C 81 % 990,8 hPa 0,0 l/m 0 min 0 min 0 W/m 29,0 km/h (5 Bft) 97,87 %
10.02.2020 04:02 10,4 C 10,0 C 8,9 C 81 % 990,8 hPa 0,0 l/m 0 min 0 min 0 W/m 29,0 km/h (5 Bft) 84,62 %
10.02.2020 04:04 10,4 C 10,0 C 8,9 C 80 % 990,9 hPa 0,0 l/m 0 min 2 min 0 W/m 32,2 km/h (5 Bft) 100,00 %
10.02.2020 04:06 10,4 C 9,4 C 8,9 C 80 % 990,9 hPa 0,0 l/m 0 min 2 min 0 W/m 25,7 km/h (4 Bft) 97,87 %
10.02.2020 04:08 10,4 C 9,4 C 8,9 C 80 % 991,0 hPa 0,0 l/m 0 min 2 min 0 W/m 38,6 km/h (5 Bft) 100,00 %
10.02.2020 04:10 10,4 C 9,4 C 8,9 C 79 % 990,9 hPa 0,0 l/m 0 min 2 min 0 W/m 45,1 km/h (6 Bft) 100,00 %
10.02.2020 04:12 10,4 C 9,4 C 8,9 C 79 % 991,1 hPa 0,0 l/m 0 min 2 min 0 W/m 35,4 km/h (5 Bft) 100,00 %
10.02.2020 04:14 10,4 C 9,4 C 8,9 C 79 % 991,2 hPa 0,0 l/m 0 min 2 min 0 W/m 48,3 km/h (6 Bft) 100,00 %
10.02.2020 04:16 10,3 C 9,4 C 8,9 C 78 % 991,1 hPa 0,0 l/m 0 min 2 min 0 W/m 41,8 km/h (6 Bft) 100,00 %
10.02.2020 04:18 10,3 C 9,4 C 8,9 C 78 % 991,1 hPa 0,0 l/m 0 min 2 min 0 W/m 38,6 km/h (5 Bft) 100,00 %
10.02.2020 04:20 10,3 C 9,4 C 8,9 C 78 % 991,0 hPa 0,0 l/m 0 min 0 min 0 W/m 32,2 km/h (5 Bft) 100,00 %
10.02.2020 04:22 10,2 C 9,4 C 8,9 C 78 % 991,0 hPa 0,0 l/m 0 min 2 min 0 W/m 35,4 km/h (5 Bft) 100,00 %
10.02.2020 04:24 10,2 C 9,4 C 8,9 C 78 % 990,9 hPa 0,0 l/m 0 min 0 min 0 W/m 29,0 km/h (5 Bft) 100,00 %
10.02.2020 04:26 10,2 C 9,4 C 8,3 C 78 % 991,2 hPa 0,0 l/m 0 min 0 min 0 W/m 22,5 km/h (4 Bft) 100,00 %
10.02.2020 04:28 10,1 C 8,9 C 8,3 C 78 % 991,1 hPa 0,0 l/m 0 min 0 min 0 W/m 32,2 km/h (5 Bft) 100,00 %
10.02.2020 04:30 10,1 C 8,9 C 8,3 C 78 % 991,1 hPa 0,0 l/m 0 min 0 min 0 W/m 38,6 km/h (5 Bft) 100,00 %
10.02.2020 04:32 10,0 C 8,9 C 8,3 C 78 % 991,2 hPa 0,0 l/m 0 min 0 min 0 W/m 29,0 km/h (5 Bft) 100,00 %
10.02.2020 04:34 9,9 C 8,9 C 8,3 C 78 % 991,2 hPa 0,0 l/m 0 min 0 min 0 W/m 29,0 km/h (5 Bft) 100,00 %
10.02.2020 04:36 9,9 C 8,9 C 8,3 C 78 % 991,2 hPa 0,0 l/m 0 min 0 min 0 W/m 29,0 km/h (5 Bft) 97,83 %
10.02.2020 04:38 9,9 C 8,9 C 8,3 C 78 % 991,3 hPa 0,0 l/m 0 min 0 min 0 W/m 35,4 km/h (5 Bft) 100,00 %
10.02.2020 04:40 9,8 C 8,9 C 8,3 C 78 % 991,4 hPa 0,0 l/m 0 min 0 min 0 W/m 32,2 km/h (5 Bft) 100,00 %
10.02.2020 04:42 9,8 C 8,9 C 8,3 C 79 % 991,4 hPa 0,0 l/m 0 min 0 min 0 W/m 29,0 km/h (5 Bft) 100,00 %
10.02.2020 04:44 9,7 C 8,9 C 8,3 C 79 % 991,4 hPa 0,0 l/m 0 min 0 min 0 W/m 32,2 km/h (5 Bft) 100,00 %
10.02.2020 04:46 9,7 C 8,9 C 8,3 C 79 % 991,5 hPa 0,0 l/m 0 min 0 min 0 W/m 25,7 km/h (4 Bft) 51,22 %
10.02.2020 04:48 9,7 C 8,9 C 8,3 C 79 % 991,6 hPa 0,0 l/m 0 min 0 min 0 W/m 25,7 km/h (4 Bft) 100,00 %
10.02.2020 04:50 9,7 C 8,9 C 8,3 C 79 % 991,6 hPa 0,0 l/m 0 min 0 min 0 W/m 25,7 km/h (4 Bft) 100,00 %
10.02.2020 04:52 9,7 C 8,9 C 8,3 C 79 % 991,5 hPa 0,0 l/m 0 min 0 min 0 W/m 45,1 km/h (6 Bft) 97,87 %
10.02.2020 04:54 9,7 C 8,9 C 8,3 C 79 % 991,6 hPa 0,0 l/m 0 min 0 min 0 W/m 29,0 km/h (5 Bft) 100,00 %
10.02.2020 04:56 9,6 C 8,9 C 8,3 C 79 % 991,5 hPa 0,0 l/m 0 min 0 min 0 W/m 22,5 km/h (4 Bft) 100,00 %
10.02.2020 04:58 9,6 C 8,9 C 8,3 C 80 % 991,6 hPa 0,0 l/m 0 min 0 min 0 W/m 38,6 km/h (5 Bft) 100,00 %
10.02.2020 05:00 9,6 C 8,9 C 8,3 C 80 % 991,6 hPa 0,0 l/m 0 min 0 min 0 W/m 32,2 km/h (5 Bft) 100,00 %
10.02.2020 05:02 9,6 C 8,9 C 8,3 C 80 % 991,6 hPa 0,0 l/m 0 min 0 min 0 W/m 32,2 km/h (5 Bft) 97,87 %
10.02.2020 05:04 9,6 C 8,9 C 8,3 C 80 % 991,6 hPa 0,0 l/m 0 min 0 min 0 W/m 29,0 km/h (5 Bft) 100,00 %
10.02.2020 05:06 9,6 C 8,9 C 8,3 C 80 % 991,5 hPa 0,0 l/m 0 min 0 min 0 W/m 19,3 km/h (3 Bft) 97,87 %
10.02.2020 05:08 9,6 C 8,9 C 8,3 C 80 % 991,6 hPa 0,0 l/m 0 min 0 min 0 W/m 22,5 km/h (4 Bft) 100,00 %
10.02.2020 05:10 9,6 C 8,9 C 8,3 C 80 % 991,6 hPa 0,0 l/m 0 min 0 min 0 W/m 25,7 km/h (4 Bft) 100,00 %
10.02.2020 05:12 9,6 C 8,9 C 8,3 C 80 % 991,6 hPa 0,0 l/m 0 min 0 min 0 W/m 29,0 km/h (5 Bft) 95,65 %
10.02.2020 05:14 9,6 C 8,9 C 8,3 C 80 % 991,6 hPa 0,0 l/m 0 min 0 min 0 W/m 19,3 km/h (3 Bft) 97,87 %
10.02.2020 05:16 9,6 C 8,9 C 8,3 C 81 % 991,7 hPa 0,0 l/m 0 min 0 min 0 W/m 22,5 km/h (4 Bft) 93,62 %
10.02.2020 05:18 9,6 C 8,9 C 8,3 C 81 % 991,6 hPa 0,0 l/m 0 min 0 min 0 W/m 29,0 km/h (5 Bft) 97,87 %
10.02.2020 05:20 9,6 C 8,9 C 8,3 C 80 % 991,6 hPa 0,0 l/m 0 min 0 min 0 W/m 29,0 km/h (5 Bft) 97,87 %
10.02.2020 05:22 9,6 C 8,9 C 8,3 C 80 % 991,6 hPa 0,0 l/m 0 min 0 min 0 W/m 19,3 km/h (3 Bft) 97,87 %
10.02.2020 05:24 9,6 C 8,9 C 8,3 C 81 % 991,6 hPa 0,0 l/m 0 min 0 min 0 W/m 25,7 km/h (4 Bft) 97,83 %
10.02.2020 05:26 9,6 C 8,9 C 8,3 C 81 % 991,5 hPa 0,0 l/m 0 min 0 min 0 W/m 32,2 km/h (5 Bft) 97,87 %
10.02.2020 05:28 9,6 C 8,9 C 8,3 C 80 % 991,5 hPa 0,0 l/m 0 min 0 min 0 W/m 35,4 km/h (5 Bft) 95,74 %
10.02.2020 05:30 9,6 C 8,9 C 8,3 C 80 % 991,6 hPa 0,0 l/m 0 min 0 min 0 W/m 29,0 km/h (5 Bft) 97,87 %
10.02.2020 05:32 9,7 C 8,9 C 8,3 C 81 % 991,5 hPa 0,0 l/m 0 min 0 min 0 W/m 38,6 km/h (5 Bft) 95,74 %
10.02.2020 05:34 9,7 C 8,9 C 8,3 C 80 % 991,5 hPa 0,0 l/m 0 min 0 min 0 W/m 29,0 km/h (5 Bft) 97,83 %
10.02.2020 05:36 9,7 C 8,9 C 8,3 C 80 % 991,4 hPa 0,0 l/m 0 min 0 min 0 W/m 32,2 km/h (5 Bft) 95,74 %
10.02.2020 05:38 9,7 C 8,9 C 7,8 C 81 % 991,3 hPa 0,0 l/m 0 min 2 min 0 W/m 19,3 km/h (3 Bft) 97,87 %
10.02.2020 05:40 9,7 C 8,3 C 7,8 C 81 % 991,4 hPa 0,0 l/m 0 min 2 min 0 W/m 22,5 km/h (4 Bft) 97,87 %
10.02.2020 05:42 9,7 C 8,3 C 7,8 C 81 % 991,2 hPa 0,0 l/m 0 min 2 min 0 W/m 35,4 km/h (5 Bft) 93,62 %
10.02.2020 05:44 9,7 C 8,3 C 7,8 C 81 % 991,3 hPa 0,0 l/m 0 min 2 min 0 W/m 16,1 km/h (3 Bft) 93,62 %
10.02.2020 05:46 9,7 C 7,8 C 7,8 C 82 % 991,3 hPa 0,0 l/m 0 min 2 min 0 W/m 22,5 km/h (4 Bft) 95,65 %
10.02.2020 05:48 9,6 C 7,2 C 7,2 C 82 % 991,4 hPa 0,0 l/m 0 min 2 min 0 W/m 19,3 km/h (3 Bft) 95,74 %
10.02.2020 05:50 9,6 C 7,2 C 6,7 C 83 % 991,4 hPa 0,0 l/m 0 min 2 min 0 W/m 19,3 km/h (3 Bft) 93,62 %
10.02.2020 05:52 9,6 C 6,7 C 6,7 C 83 % 991,5 hPa 0,0 l/m 0 min 2 min 0 W/m 25,7 km/h (4 Bft) 95,74 %
10.02.2020 05:54 9,4 C 6,7 C 6,1 C 84 % 991,5 hPa 0,2 l/m 0 min 2 min 0 W/m 25,7 km/h (4 Bft) 97,87 %
10.02.2020 05:56 9,3 C 6,7 C 6,1 C 85 % 991,5 hPa 0,2 l/m 0 min 2 min 0 W/m 25,7 km/h (4 Bft) 95,74 %
10.02.2020 05:58 9,3 C 6,7 C 6,1 C 86 % 991,5 hPa 0,0 l/m 0 min 2 min 0 W/m 16,1 km/h (3 Bft) 95,65 %
10.02.2020 06:00 9,2 C 6,7 C 6,1 C 86 % 991,5 hPa 0,2 l/m 0 min 2 min 0 W/m 25,7 km/h (4 Bft) 95,74 %
10.02.2020 06:02 9,1 C 6,7 C 6,1 C 87 % 991,6 hPa 0,0 l/m 0 min 2 min 0 W/m 19,3 km/h (3 Bft) 95,74 %
10.02.2020 06:04 9,0 C 6,7 C 6,1 C 88 % 991,5 hPa 0,2 l/m 0 min 2 min 0 W/m 16,1 km/h (3 Bft) 95,74 %
10.02.2020 06:06 8,9 C 6,7 C 6,1 C 88 % 991,4 hPa 0,0 l/m 0 min 2 min 0 W/m 22,5 km/h (4 Bft) 93,62 %
10.02.2020 06:08 8,8 C 6,1 C 6,1 C 88 % 991,4 hPa 0,0 l/m 0 min 2 min 0 W/m 16,1 km/h (3 Bft) 95,74 %
10.02.2020 06:10 8,8 C 6,7 C 6,1 C 89 % 991,4 hPa 0,0 l/m 0 min 2 min 0 W/m 16,1 km/h (3 Bft) 95,65 %
10.02.2020 06:12 8,7 C 6,7 C 6,1 C 89 % 991,2 hPa 0,0 l/m 0 min 0 min 0 W/m 38,6 km/h (5 Bft) 95,74 %
10.02.2020 06:14 8,7 C 6,7 C 6,1 C 89 % 991,2 hPa 0,0 l/m 0 min 2 min 0 W/m 19,3 km/h (3 Bft) 95,74 %
10.02.2020 06:16 8,7 C 6,7 C 6,1 C 89 % 991,1 hPa 0,0 l/m 0 min 2 min 0 W/m 19,3 km/h (3 Bft) 95,74 %
10.02.2020 06:18 8,6 C 6,7 C 6,1 C 89 % 991,1 hPa 0,2 l/m 0 min 2 min 0 W/m 19,3 km/h (3 Bft) 95,74 %
10.02.2020 06:20 8,6 C 6,1 C 6,1 C 89 % 991,3 hPa 0,0 l/m 0 min 2 min 0 W/m 41,8 km/h (6 Bft) 95,74 %
10.02.2020 06:22 8,6 C 6,1 C 6,1 C 89 % 991,3 hPa 0,2 l/m 0 min 2 min 0 W/m 22,5 km/h (4 Bft) 93,48 %
10.02.2020 06:24 8,5 C 6,1 C 6,1 C 89 % 991,5 hPa 0,0 l/m 0 min 2 min 0 W/m 35,4 km/h (5 Bft) 95,74 %
10.02.2020 06:26 8,5 C 6,1 C 6,1 C 89 % 991,5 hPa 0,0 l/m 0 min 2 min 0 W/m 22,5 km/h (4 Bft) 95,74 %
10.02.2020 06:28 8,4 C 6,1 C 5,6 C 89 % 991,5 hPa 0,0 l/m 0 min 2 min 0 W/m 22,5 km/h (4 Bft) 93,62 %
10.02.2020 06:30 8,4 C 6,1 C 5,6 C 89 % 991,5 hPa 0,0 l/m 0 min 2 min 0 W/m 38,6 km/h (5 Bft) 97,87 %
10.02.2020 06:32 8,4 C 6,1 C 5,6 C 89 % 991,6 hPa 0,2 l/m 0 min 2 min 0 W/m 22,5 km/h (4 Bft) 97,87 %
10.02.2020 06:34 8,4 C 6,1 C 6,1 C 90 % 991,8 hPa 0,0 l/m 0 min 2 min 0 W/m 19,3 km/h (3 Bft) 97,83 %
10.02.2020 06:36 8,4 C 6,1 C 6,1 C 90 % 991,9 hPa 0,0 l/m 0 min 2 min 0 W/m 22,5 km/h (4 Bft) 97,87 %
10.02.2020 06:38 8,3 C 6,1 C 6,1 C 90 % 991,8 hPa 0,0 l/m 0 min 2 min 0 W/m 29,0 km/h (5 Bft) 97,87 %
10.02.2020 06:40 8,3 C 6,1 C 5,6 C 90 % 991,9 hPa 0,2 l/m 0 min 2 min 0 W/m 29,0 km/h (5 Bft) 97,87 %
10.02.2020 06:42 8,2 C 6,1 C 5,6 C 91 % 991,9 hPa 0,0 l/m 0 min 2 min 0 W/m 19,3 km/h (3 Bft) 93,62 %
10.02.2020 06:44 8,2 C 6,1 C 5,6 C 91 % 992,0 hPa 0,2 l/m 0 min 2 min 0 W/m 35,4 km/h (5 Bft) 97,83 %
10.02.2020 06:46 8,1 C 6,1 C 5,6 C 91 % 992,0 hPa 0,6 l/m 0 min 2 min 0 W/m 25,7 km/h (4 Bft) 95,74 %
10.02.2020 06:48 8,1 C 6,1 C 5,6 C 91 % 991,9 hPa 0,0 l/m 0 min 2 min 0 W/m 25,7 km/h (4 Bft) 97,87 %
10.02.2020 06:50 8,0 C 6,1 C 5,6 C 92 % 991,9 hPa 0,0 l/m 0 min 2 min 0 W/m 32,2 km/h (5 Bft) 97,87 %
10.02.2020 06:52 8,0 C 6,1 C 5,6 C 92 % 991,8 hPa 0,0 l/m 0 min 0 min 0 W/m 38,6 km/h (5 Bft) 97,87 %
10.02.2020 06:54 8,0 C 6,1 C 5,6 C 92 % 992,1 hPa 0,0 l/m 0 min 2 min 0 W/m 25,7 km/h (4 Bft) 95,74 %
10.02.2020 06:56 8,0 C 6,1 C 5,6 C 92 % 992,0 hPa 0,0 l/m 0 min 2 min 0 W/m 22,5 km/h (4 Bft) 95,65 %
10.02.2020 06:58 7,9 C 6,1 C 5,6 C 92 % 992,1 hPa 0,2 l/m 0 min 2 min 0 W/m 25,7 km/h (4 Bft) 97,87 %
10.02.2020 07:00 8,0 C 6,1 C 5,6 C 92 % 992,0 hPa 0,0 l/m 0 min 2 min 0 W/m 29,0 km/h (5 Bft) 95,74 %
10.02.2020 07:02 8,0 C 6,1 C 5,6 C 92 % 992,0 hPa 0,0 l/m 0 min 2 min 0 W/m 29,0 km/h (5 Bft) 93,62 %
10.02.2020 07:04 8,0 C 6,1 C 6,1 C 92 % 992,0 hPa 0,0 l/m 0 min 2 min 0 W/m 29,0 km/h (5 Bft) 97,87 %
10.02.2020 07:06 8,0 C 6,7 C 6,1 C 92 % 992,1 hPa 0,0 l/m 0 min 2 min 0 W/m 32,2 km/h (5 Bft) 100,00 %
10.02.2020 07:08 8,0 C 6,7 C 6,1 C 92 % 992,2 hPa 0,0 l/m 0 min 2 min 0 W/m 32,2 km/h (5 Bft) 100,00 %
10.02.2020 07:10 8,1 C 6,7 C 6,1 C 92 % 992,1 hPa 0,0 l/m 0 min 2 min 0 W/m 25,7 km/h (4 Bft) 100,00 %
10.02.2020 07:12 8,1 C 6,7 C 6,1 C 92 % 992,3 hPa 0,0 l/m 0 min 2 min 0 W/m 32,2 km/h (5 Bft) 100,00 %
10.02.2020 07:14 8,1 C 6,1 C 6,1 C 92 % 992,3 hPa 0,0 l/m 0 min 2 min 0 W/m 41,8 km/h (6 Bft) 100,00 %
10.02.2020 07:16 8,1 C 6,1 C 5,6 C 92 % 992,3 hPa 0,2 l/m 0 min 2 min 0 W/m 38,6 km/h (5 Bft) 100,00 %
10.02.2020 07:18 8,1 C 6,1 C 5,6 C 92 % 992,3 hPa 0,0 l/m 0 min 2 min 0 W/m 19,3 km/h (3 Bft) 100,00 %
10.02.2020 07:20 8,1 C 6,1 C 5,6 C 92 % 992,3 hPa 0,0 l/m 0 min 2 min 0 W/m 19,3 km/h (3 Bft) 100,00 %
10.02.2020 07:22 8,0 C 6,1 C 5,6 C 92 % 992,3 hPa 0,0 l/m 0 min 2 min 0 W/m 35,4 km/h (5 Bft) 100,00 %
10.02.2020 07:24 8,0 C 6,1 C 5,6 C 92 % 992,4 hPa 0,0 l/m 0 min 2 min 0 W/m 32,2 km/h (5 Bft) 100,00 %
10.02.2020 07:26 8,0 C 6,7 C 5,6 C 92 % 992,5 hPa 0,0 l/m 0 min 2 min 0 W/m 48,3 km/h (6 Bft) 100,00 %
10.02.2020 07:28 8,0 C 6,7 C 5,6 C 91 % 992,1 hPa 0,0 l/m 0 min 2 min 0 W/m 38,6 km/h (5 Bft) 100,00 %
10.02.2020 07:30 8,0 C 6,7 C 5,6 C 91 % 992,2 hPa 0,0 l/m 0 min 2 min 0 W/m 48,3 km/h (6 Bft) 97,87 %
10.02.2020 07:32 8,1 C 6,7 C 5,6 C 91 % 992,3 hPa 0,0 l/m 0 min 2 min 0 W/m 48,3 km/h (6 Bft) 100,00 %
10.02.2020 07:34 8,1 C 6,7 C 5,6 C 91 % 992,4 hPa 0,0 l/m 0 min 0 min 0 W/m 35,4 km/h (5 Bft) 100,00 %
10.02.2020 07:36 8,1 C 6,7 C 6,1 C 90 % 992,4 hPa 0,0 l/m 0 min 2 min 0 W/m 51,5 km/h (7 Bft) 97,87 %
10.02.2020 07:38 8,1 C 6,1 C 6,1 C 90 % 992,4 hPa 0,0 l/m 0 min 2 min 0 W/m 29,0 km/h (5 Bft) 97,87 %
10.02.2020 07:40 8,1 C 6,1 C 6,1 C 90 % 992,3 hPa 0,0 l/m 0 min 2 min 0 W/m 51,5 km/h (7 Bft) 100,00 %
10.02.2020 07:42 8,1 C 6,7 C 6,1 C 89 % 992,5 hPa 0,0 l/m 0 min 2 min 0 W/m 35,4 km/h (5 Bft) 100,00 %
10.02.2020 07:44 8,1 C 6,7 C 6,1 C 89 % 992,5 hPa 0,0 l/m 0 min 2 min 0 W/m 29,0 km/h (5 Bft) 100,00 %
10.02.2020 07:46 8,1 C 6,7 C 6,1 C 89 % 992,7 hPa 0,0 l/m 0 min 2 min 0 W/m 41,8 km/h (6 Bft) 100,00 %
10.02.2020 07:48 8,1 C 6,7 C 6,1 C 88 % 992,8 hPa 0,0 l/m 0 min 2 min 0 W/m 32,2 km/h (5 Bft) 95,74 %
10.02.2020 07:50 8,2 C 6,7 C 5,6 C 88 % 993,3 hPa 0,0 l/m 0 min 2 min 0 W/m 29,0 km/h (5 Bft) 97,87 %
10.02.2020 07:52 8,2 C 6,1 C 5,6 C 89 % 993,6 hPa 0,2 l/m 0 min 2 min 0 W/m 32,2 km/h (5 Bft) 97,87 %
10.02.2020 07:54 8,1 C 5,6 C 5,0 C 89 % 993,6 hPa 0,2 l/m 0 min 2 min 0 W/m 48,3 km/h (6 Bft) 97,83 %
10.02.2020 07:56 7,9 C 5,6 C 5,0 C 89 % 994,0 hPa 0,0 l/m 0 min 2 min 0 W/m 45,1 km/h (6 Bft) 97,87 %
10.02.2020 07:58 7,7 C 5,6 C 5,0 C 89 % 994,2 hPa 0,0 l/m 0 min 2 min 0 W/m 29,0 km/h (5 Bft) 95,74 %
10.02.2020 08:00 7,6 C 5,0 C 5,0 C 90 % 994,3 hPa 0,0 l/m 0 min 2 min 0 W/m 45,1 km/h (6 Bft) 97,87 %
10.02.2020 08:02 7,4 C 5,6 C 5,0 C 90 % 994,4 hPa 0,0 l/m 0 min 2 min 0 W/m 29,0 km/h (5 Bft) 97,87 %
10.02.2020 08:04 7,3 C 5,6 C 5,0 C 90 % 994,6 hPa 0,0 l/m 0 min 2 min 0 W/m 29,0 km/h (5 Bft) 97,87 %
10.02.2020 08:06 7,2 C 5,6 C 5,0 C 90 % 994,5 hPa 0,0 l/m 0 min 2 min 0 W/m 57,9 km/h (7 Bft) 97,83 %
10.02.2020 08:08 7,1 C 5,6 C 5,0 C 90 % 994,5 hPa 0,0 l/m 0 min 0 min 0 W/m 45,1 km/h (6 Bft) 97,87 %
10.02.2020 08:10 7,0 C 5,0 C 4,4 C 90 % 994,8 hPa 0,0 l/m 0 min 0 min 0 W/m 41,8 km/h (6 Bft) 97,87 %
10.02.2020 08:12 6,9 C 5,0 C 4,4 C 90 % 995,0 hPa 0,0 l/m 0 min 0 min 0 W/m 25,7 km/h (4 Bft) 97,87 %
10.02.2020 08:14 6,8 C 5,0 C 4,4 C 90 % 994,9 hPa 0,0 l/m 0 min 0 min 0 W/m 38,6 km/h (5 Bft) 97,87 %
10.02.2020 08:16 6,8 C 5,0 C 4,4 C 90 % 995,1 hPa 0,0 l/m 0 min 0 min 1 W/m 16,1 km/h (3 Bft) 97,87 %
10.02.2020 08:18 6,7 C 5,0 C 4,4 C 90 % 995,2 hPa 0,0 l/m 0 min 0 min 5 W/m 19,3 km/h (3 Bft) 97,83 %
10.02.2020 08:20 6,7 C 5,0 C 4,4 C 90 % 995,0 hPa 0,0 l/m 0 min 0 min 6 W/m 32,2 km/h (5 Bft) 97,87 %
10.02.2020 08:22 6,6 C 5,0 C 4,4 C 90 % 995,2 hPa 0,0 l/m 0 min 0 min 9 W/m 38,6 km/h (5 Bft) 97,87 %
10.02.2020 08:24 6,6 C 5,0 C 4,4 C 90 % 995,0 hPa 0,0 l/m 0 min 0 min 13 W/m 29,0 km/h (5 Bft) 97,87 %
10.02.2020 08:26 6,5 C 5,0 C 4,4 C 90 % 995,3 hPa 0,0 l/m 0 min 0 min 14 W/m 38,6 km/h (5 Bft) 97,87 %
10.02.2020 08:28 6,5 C 5,0 C 4,4 C 90 % 995,4 hPa 0,0 l/m 0 min 0 min 13 W/m 38,6 km/h (5 Bft) 97,87 %
10.02.2020 08:30 6,5 C 5,0 C 4,4 C 90 % 995,7 hPa 0,0 l/m 0 min 0 min 12 W/m 22,5 km/h (4 Bft) 100,00 %
10.02.2020 08:32 6,5 C 5,0 C 4,4 C 90 % 995,7 hPa 0,0 l/m 0 min 0 min 15 W/m 32,2 km/h (5 Bft) 100,00 %
10.02.2020 08:34 6,5 C 5,0 C 4,4 C 89 % 995,8 hPa 0,0 l/m 0 min 0 min 14 W/m 9,7 km/h (2 Bft) 97,87 %
10.02.2020 08:36 6,5 C 5,0 C 4,4 C 89 % 996,1 hPa 0,0 l/m 0 min 0 min 12 W/m 35,4 km/h (5 Bft) 97,87 %
10.02.2020 08:38 6,4 C 5,0 C 4,4 C 90 % 996,0 hPa 0,0 l/m 0 min 0 min 11 W/m 38,6 km/h (5 Bft) 97,87 %
10.02.2020 08:40 6,4 C 5,0 C 4,4 C 90 % 996,2 hPa 0,0 l/m 0 min 0 min 10 W/m 19,3 km/h (3 Bft) 97,83 %
10.02.2020 08:42 6,5 C 5,0 C 4,4 C 89 % 996,1 hPa 0,0 l/m 0 min 0 min 10 W/m 22,5 km/h (4 Bft) 97,87 %
10.02.2020 08:44 6,5 C 5,0 C 4,4 C 89 % 996,2 hPa 0,0 l/m 0 min 0 min 9 W/m 32,2 km/h (5 Bft) 95,74 %
10.02.2020 08:46 6,5 C 5,0 C 4,4 C 89 % 996,2 hPa 0,0 l/m 0 min 0 min 10 W/m 35,4 km/h (5 Bft) 97,87 %
10.02.2020 08:48 6,5 C 5,6 C 4,4 C 89 % 996,2 hPa 0,0 l/m 0 min 0 min 12 W/m 25,7 km/h (4 Bft) 97,87 %
10.02.2020 08:50 6,5 C 5,6 C 4,4 C 88 % 996,3 hPa 0,0 l/m 0 min 0 min 13 W/m 38,6 km/h (5 Bft) 95,74 %
10.02.2020 08:52 6,5 C 5,6 C 4,4 C 88 % 996,3 hPa 0,0 l/m 0 min 0 min 14 W/m 25,7 km/h (4 Bft) 95,65 %
10.02.2020 08:54 6,6 C 5,6 C 4,4 C 88 % 996,5 hPa 0,0 l/m 0 min 0 min 15 W/m 29,0 km/h (5 Bft) 93,62 %
10.02.2020 08:56 6,6 C 5,6 C 4,4 C 88 % 996,7 hPa 0,0 l/m 0 min 0 min 16 W/m 29,0 km/h (5 Bft) 97,87 %
10.02.2020 08:58 6,6 C 5,6 C 4,4 C 88 % 996,6 hPa 0,0 l/m 0 min 0 min 20 W/m 35,4 km/h (5 Bft) 97,87 %
10.02.2020 09:00 6,6 C 5,6 C 4,4 C 87 % 996,6 hPa 0,0 l/m 0 min 0 min 25 W/m 38,6 km/h (5 Bft) 95,74 %
10.02.2020 09:02 6,7 C 5,6 C 4,4 C 87 % 996,7 hPa 0,0 l/m 0 min 2 min 28 W/m 29,0 km/h (5 Bft) 95,74 %
10.02.2020 09:04 6,7 C 5,6 C 4,4 C 87 % 996,8 hPa 0,0 l/m 0 min 2 min 51 W/m 35,4 km/h (5 Bft) 97,83 %
10.02.2020 09:06 6,7 C 5,6 C 4,4 C 87 % 996,8 hPa 0,0 l/m 2 min 2 min 78 W/m 25,7 km/h (4 Bft) 97,87 %
10.02.2020 09:08 6,8 C 6,1 C 4,4 C 87 % 997,0 hPa 0,0 l/m 2 min 0 min 81 W/m 25,7 km/h (4 Bft) 97,87 %
10.02.2020 09:10 6,8 C 6,1 C 5,0 C 87 % 997,2 hPa 0,0 l/m 0 min 0 min 55 W/m 19,3 km/h (3 Bft) 97,87 %
10.02.2020 09:12 6,8 C 6,7 C 5,0 C 88 % 997,0 hPa 0,0 l/m 0 min 0 min 60 W/m 22,5 km/h (4 Bft) 93,62 %
10.02.2020 09:14 6,8 C 6,7 C 5,0 C 88 % 997,0 hPa 0,0 l/m 0 min 0 min 67 W/m 32,2 km/h (5 Bft) 46,15 %
10.02.2020 09:16 6,9 C 6,7 C 5,0 C 88 % 997,2 hPa 0,0 l/m 2 min 0 min 99 W/m 32,2 km/h (5 Bft) 95,56 %
10.02.2020 09:18 6,9 C 6,7 C 5,0 C 88 % 997,2 hPa 0,0 l/m 0 min 0 min 63 W/m 35,4 km/h (5 Bft) 95,74 %
10.02.2020 09:20 7,0 C 6,7 C 5,0 C 87 % 997,4 hPa 0,0 l/m 0 min 0 min 54 W/m 41,8 km/h (6 Bft) 97,87 %
10.02.2020 09:22 7,1 C 6,7 C 5,0 C 87 % 997,4 hPa 0,0 l/m 0 min 0 min 58 W/m 25,7 km/h (4 Bft) 93,62 %
10.02.2020 09:24 7,1 C 6,7 C 5,0 C 87 % 997,4 hPa 0,0 l/m 0 min 0 min 42 W/m 29,0 km/h (5 Bft) 97,87 %
10.02.2020 09:26 7,1 C 6,7 C 5,0 C 86 % 997,3 hPa 0,0 l/m 0 min 0 min 57 W/m 25,7 km/h (4 Bft) 100,00 %
10.02.2020 09:28 7,1 C 6,7 C 5,0 C 86 % 997,4 hPa 0,0 l/m 0 min 0 min 74 W/m 32,2 km/h (5 Bft) 100,00 %
10.02.2020 09:30 7,2 C 6,7 C 5,0 C 86 % 997,4 hPa 0,0 l/m 0 min 0 min 64 W/m 19,3 km/h (3 Bft) 97,87 %
10.02.2020 09:32 7,2 C 6,7 C 5,0 C 86 % 997,3 hPa 0,0 l/m 0 min 0 min 58 W/m 19,3 km/h (3 Bft) 97,87 %
10.02.2020 09:34 7,2 C 6,7 C 5,0 C 86 % 997,2 hPa 0,0 l/m 0 min 0 min 49 W/m 19,3 km/h (3 Bft) 100,00 %
10.02.2020 09:36 7,2 C 6,7 C 5,0 C 86 % 997,5 hPa 0,0 l/m 0 min 0 min 29 W/m 25,7 km/h (4 Bft) 97,87 %
10.02.2020 09:38 7,2 C 6,7 C 5,0 C 86 % 997,8 hPa 0,0 l/m 0 min 0 min 17 W/m 22,5 km/h (4 Bft) 100,00 %
10.02.2020 09:40 7,2 C 6,1 C 5,0 C 86 % 998,0 hPa 0,0 l/m 0 min 0 min 19 W/m 45,1 km/h (6 Bft) 100,00 %
10.02.2020 09:42 7,0 C 5,6 C 4,4 C 86 % 998,0 hPa 0,0 l/m 0 min 0 min 25 W/m 35,4 km/h (5 Bft) 100,00 %
10.02.2020 09:44 6,8 C 5,6 C 4,4 C 85 % 998,1 hPa 0,0 l/m 0 min 2 min 35 W/m 35,4 km/h (5 Bft) 100,00 %
10.02.2020 09:46 6,7 C 5,6 C 4,4 C 86 % 997,9 hPa 0,0 l/m 0 min 2 min 26 W/m 25,7 km/h (4 Bft) 100,00 %
10.02.2020 09:48 6,6 C 5,6 C 4,4 C 86 % 998,0 hPa 0,0 l/m 0 min 2 min 29 W/m 38,6 km/h (5 Bft) 97,87 %
10.02.2020 09:50 6,6 C 5,6 C 4,4 C 86 % 997,8 hPa 0,0 l/m 0 min 0 min 50 W/m 16,1 km/h (3 Bft) 97,83 %
10.02.2020 09:52 6,5 C 5,6 C 4,4 C 87 % 997,9 hPa 0,0 l/m 0 min 0 min 68 W/m 16,1 km/h (3 Bft) 97,87 %
10.02.2020 09:54 6,5 C 6,1 C 4,4 C 87 % 998,0 hPa 0,0 l/m 0 min 0 min 106 W/m 25,7 km/h (4 Bft) 97,87 %
10.02.2020 09:56 6,5 C 6,1 C 5,0 C 87 % 998,3 hPa 0,0 l/m 0 min 2 min 77 W/m 38,6 km/h (5 Bft) 93,62 %
10.02.2020 09:58 6,4 C 6,1 C 4,4 C 87 % 998,4 hPa 0,0 l/m 0 min 2 min 52 W/m 38,6 km/h (5 Bft) 97,87 %
10.02.2020 10:00 6,4 C 5,6 C 4,4 C 87 % 998,3 hPa 0,0 l/m 0 min 0 min 36 W/m 22,5 km/h (4 Bft) 97,87 %
10.02.2020 10:02 6,4 C 5,6 C 4,4 C 87 % 998,3 hPa 0,0 l/m 0 min 0 min 56 W/m 32,2 km/h (5 Bft) 97,83 %
10.02.2020 10:04 6,3 C 5,6 C 4,4 C 87 % 998,4 hPa 0,0 l/m 0 min 0 min 72 W/m 12,9 km/h (3 Bft) 97,87 %
10.02.2020 10:06 6,3 C 5,6 C 4,4 C 88 % 998,5 hPa 0,0 l/m 0 min 0 min 41 W/m 12,9 km/h (3 Bft) 95,74 %
10.02.2020 10:08 6,3 C 5,6 C 4,4 C 88 % 998,4 hPa 0,0 l/m 0 min 0 min 44 W/m 12,9 km/h (3 Bft) 97,87 %
10.02.2020 10:10 6,3 C 6,1 C 4,4 C 88 % 998,5 hPa 0,0 l/m 0 min 2 min 55 W/m 19,3 km/h (3 Bft) 97,87 %
10.02.2020 10:12 6,3 C 6,1 C 5,0 C 88 % 998,4 hPa 0,0 l/m 0 min 0 min 78 W/m 22,5 km/h (4 Bft) 95,74 %
10.02.2020 10:14 6,3 C 7,2 C 5,0 C 88 % 998,3 hPa 0,0 l/m 0 min 0 min 87 W/m 38,6 km/h (5 Bft) 95,65 %
10.02.2020 10:16 6,5 C 7,2 C 5,6 C 88 % 998,5 hPa 0,0 l/m 0 min 0 min 76 W/m 25,7 km/h (4 Bft) 95,74 %
10.02.2020 10:18 6,6 C 7,2 C 5,6 C 87 % 998,5 hPa 0,0 l/m 0 min 0 min 99 W/m 29,0 km/h (5 Bft) 95,74 %
10.02.2020 10:20 6,7 C 7,8 C 5,6 C 86 % 998,4 hPa 0,0 l/m 0 min 0 min 115 W/m 32,2 km/h (5 Bft) 95,74 %
10.02.2020 10:22 6,9 C 7,8 C 5,6 C 85 % 998,5 hPa 0,0 l/m 0 min 0 min 94 W/m 38,6 km/h (5 Bft) 93,62 %
10.02.2020 10:24 7,1 C 7,8 C 6,1 C 84 % 998,4 hPa 0,0 l/m 0 min 0 min 131 W/m 25,7 km/h (4 Bft) 93,62 %
10.02.2020 10:26 7,2 C 8,3 C 6,7 C 83 % 998,7 hPa 0,0 l/m 2 min 0 min 166 W/m 25,7 km/h (4 Bft) 95,92 %
10.02.2020 10:28 7,3 C 8,3 C 7,2 C 83 % 998,7 hPa 0,0 l/m 0 min 0 min 140 W/m 19,3 km/h (3 Bft) 93,62 %
10.02.2020 10:30 7,5 C 8,3 C 7,2 C 83 % 998,7 hPa 0,0 l/m 0 min 0 min 137 W/m 29,0 km/h (5 Bft) 95,74 %
10.02.2020 10:32 7,6 C 8,3 C 7,2 C 82 % 998,7 hPa 0,0 l/m 0 min 0 min 101 W/m 32,2 km/h (5 Bft) 95,74 %
10.02.2020 10:34 7,7 C 7,8 C 6,7 C 81 % 998,8 hPa 0,0 l/m 0 min 0 min 66 W/m 32,2 km/h (5 Bft) 95,74 %
10.02.2020 10:36 7,8 C 7,8 C 6,7 C 81 % 998,9 hPa 0,0 l/m 0 min 0 min 66 W/m 19,3 km/h (3 Bft) 95,65 %
10.02.2020 10:38 7,8 C 7,8 C 6,7 C 80 % 999,0 hPa 0,0 l/m 0 min 0 min 52 W/m 38,6 km/h (5 Bft) 95,74 %
10.02.2020 10:40 7,8 C 7,2 C 6,7 C 79 % 999,0 hPa 0,0 l/m 0 min 0 min 53 W/m 51,5 km/h (7 Bft) 95,74 %
10.02.2020 10:42 7,8 C 7,8 C 6,7 C 79 % 999,1 hPa 0,0 l/m 0 min 0 min 95 W/m 38,6 km/h (5 Bft) 93,62 %
10.02.2020 10:44 7,8 C 7,8 C 7,2 C 78 % 999,1 hPa 0,0 l/m 0 min 0 min 158 W/m 25,7 km/h (4 Bft) 95,74 %
10.02.2020 10:46 7,9 C 7,8 C 7,2 C 78 % 999,2 hPa 0,0 l/m 0 min 0 min 151 W/m 22,5 km/h (4 Bft) 97,87 %
10.02.2020 10:48 7,9 C 7,8 C 7,2 C 78 % 999,2 hPa 0,0 l/m 0 min 0 min 136 W/m 29,0 km/h (5 Bft) 97,83 %
10.02.2020 10:50 7,9 C 7,8 C 6,7 C 78 % 999,3 hPa 0,0 l/m 0 min 0 min 103 W/m 29,0 km/h (5 Bft) 97,87 %
10.02.2020 10:52 7,9 C 8,3 C 6,7 C 78 % 999,4 hPa 0,0 l/m 0 min 0 min 116 W/m 45,1 km/h (6 Bft) 95,74 %
10.02.2020 10:54 7,9 C 8,3 C 7,2 C 77 % 999,3 hPa 0,0 l/m 0 min 0 min 130 W/m 41,8 km/h (6 Bft) 97,87 %
10.02.2020 10:56 8,0 C 8,3 C 7,2 C 77 % 999,6 hPa 0,0 l/m 0 min 0 min 110 W/m 38,6 km/h (5 Bft) 95,74 %
10.02.2020 10:58 8,0 C 7,8 C 6,7 C 77 % 999,6 hPa 0,2 l/m 0 min 0 min 73 W/m 22,5 km/h (4 Bft) 97,87 %
10.02.2020 11:00 8,0 C 7,8 C 6,7 C 76 % 999,6 hPa 0,0 l/m 0 min 0 min 84 W/m 32,2 km/h (5 Bft) 97,83 %
10.02.2020 11:02 8,0 C 7,8 C 6,7 C 76 % 999,8 hPa 0,0 l/m 0 min 0 min 101 W/m 25,7 km/h (4 Bft) 100,00 %
10.02.2020 11:04 8,0 C 6,7 C 6,7 C 76 % 999,7 hPa 0,0 l/m 0 min 2 min 84 W/m 38,6 km/h (5 Bft) 100,00 %
10.02.2020 11:06 7,9 C 7,2 C 6,1 C 78 % 999,9 hPa 0,0 l/m 0 min 2 min 139 W/m 41,8 km/h (6 Bft) 100,00 %
10.02.2020 11:08 7,9 C 7,8 C 6,7 C 78 % 999,9 hPa 0,0 l/m 2 min 2 min 224 W/m 41,8 km/h (6 Bft) 97,87 %
10.02.2020 11:10 7,9 C 8,3 C 7,2 C 78 % 1000,2 hPa 0,0 l/m 2 min 2 min 225 W/m 25,7 km/h (4 Bft) 100,00 %
10.02.2020 11:12 7,9 C 8,3 C 7,2 C 78 % 999,9 hPa 0,0 l/m 2 min 2 min 192 W/m 54,7 km/h (7 Bft) 100,00 %
10.02.2020 11:14 8,0 C 8,3 C 7,2 C 78 % 999,9 hPa 0,0 l/m 2 min 2 min 200 W/m 29,0 km/h (5 Bft) 100,00 %
10.02.2020 11:16 8,1 C 8,3 C 7,2 C 77 % 1000,0 hPa 0,0 l/m 0 min 2 min 181 W/m 38,6 km/h (5 Bft) 100,00 %
10.02.2020 11:18 8,1 C 8,3 C 7,2 C 76 % 1000,1 hPa 0,0 l/m 2 min 2 min 194 W/m 35,4 km/h (5 Bft) 100,00 %
10.02.2020 11:20 8,1 C 8,3 C 7,2 C 76 % 999,9 hPa 0,0 l/m 0 min 2 min 154 W/m 41,8 km/h (6 Bft) 97,87 %
10.02.2020 11:22 8,1 C 8,3 C 7,2 C 76 % 1000,1 hPa 0,0 l/m 0 min 2 min 179 W/m 51,5 km/h (7 Bft) 97,83 %
10.02.2020 11:24 8,2 C 10,0 C 7,2 C 75 % 1000,1 hPa 0,0 l/m 2 min 2 min 218 W/m 35,4 km/h (5 Bft) 97,87 %
10.02.2020 11:26 8,2 C 9,4 C 7,2 C 76 % 1000,2 hPa 0,0 l/m 2 min 0 min 339 W/m 35,4 km/h (5 Bft) 97,87 %
10.02.2020 11:28 8,3 C 8,3 C 7,2 C 75 % 1000,2 hPa 0,0 l/m 0 min 0 min 132 W/m 51,5 km/h (7 Bft) 97,87 %
10.02.2020 11:30 8,2 C 8,3 C 7,2 C 74 % 1000,2 hPa 0,0 l/m 0 min 2 min 133 W/m 41,8 km/h (6 Bft) 97,87 %
10.02.2020 11:32 8,2 C 7,8 C 7,2 C 74 % 1000,2 hPa 0,0 l/m 0 min 2 min 124 W/m 41,8 km/h (6 Bft) 97,87 %
10.02.2020 11:34 8,2 C 7,8 C 7,2 C 73 % 1000,4 hPa 0,0 l/m 0 min 0 min 120 W/m 54,7 km/h (7 Bft) 97,83 %
10.02.2020 11:36 8,2 C 7,8 C 7,2 C 74 % 1000,5 hPa 0,0 l/m 0 min 0 min 84 W/m 35,4 km/h (5 Bft) 93,62 %
10.02.2020 11:38 8,2 C 7,8 C 6,7 C 74 % 1000,5 hPa 0,0 l/m 0 min 0 min 76 W/m 29,0 km/h (5 Bft) 97,87 %
10.02.2020 11:40 8,2 C 7,8 C 6,7 C 74 % 1000,6 hPa 0,0 l/m 0 min 0 min 77 W/m 32,2 km/h (5 Bft) 97,87 %
10.02.2020 11:42 8,1 C 7,8 C 6,7 C 75 % 1000,5 hPa 0,0 l/m 0 min 0 min 74 W/m 35,4 km/h (5 Bft) 97,87 %
10.02.2020 11:44 8,1 C 7,2 C 6,7 C 74 % 1000,6 hPa 0,0 l/m 0 min 2 min 98 W/m 35,4 km/h (5 Bft) 97,87 %
10.02.2020 11:46 8,1 C 7,8 C 6,7 C 74 % 1000,7 hPa 0,0 l/m 0 min 0 min 117 W/m 57,9 km/h (7 Bft) 97,83 %
10.02.2020 11:48 8,1 C 7,8 C 6,7 C 74 % 1000,7 hPa 0,0 l/m 0 min 0 min 80 W/m 22,5 km/h (4 Bft) 97,87 %
10.02.2020 11:50 8,1 C 7,8 C 6,7 C 74 % 1000,6 hPa 0,0 l/m 0 min 2 min 102 W/m 35,4 km/h (5 Bft) 97,87 %
10.02.2020 11:52 8,1 C 8,3 C 7,2 C 74 % 1000,7 hPa 0,0 l/m 0 min 0 min 182 W/m 29,0 km/h (5 Bft) 95,74 %
10.02.2020 11:54 8,1 C 8,9 C 7,2 C 74 % 1000,7 hPa 0,0 l/m 2 min 0 min 233 W/m 45,1 km/h (6 Bft) 97,87 %
10.02.2020 11:56 8,1 C 8,3 C 7,2 C 74 % 1000,8 hPa 0,0 l/m 2 min 0 min 286 W/m 38,6 km/h (5 Bft) 94,87 %
10.02.2020 11:58 8,1 C 8,3 C 7,2 C 73 % 1001,0 hPa 0,0 l/m 0 min 0 min 136 W/m 38,6 km/h (5 Bft) 97,83 %
10.02.2020 12:00 8,1 C 7,8 C 7,2 C 73 % 1000,8 hPa 0,0 l/m 0 min 0 min 137 W/m 48,3 km/h (6 Bft) 95,74 %
10.02.2020 12:02 8,1 C 8,3 C 7,2 C 73 % 1001,1 hPa 0,0 l/m 0 min 0 min 145 W/m 41,8 km/h (6 Bft) 100,00 %
10.02.2020 12:04 8,2 C 9,4 C 7,8 C 72 % 1001,1 hPa 0,0 l/m 2 min 0 min 225 W/m 35,4 km/h (5 Bft) 100,00 %
10.02.2020 12:06 8,2 C 8,9 C 7,8 C 72 % 1001,3 hPa 0,0 l/m 2 min 0 min 208 W/m 41,8 km/h (6 Bft) 97,87 %
10.02.2020 12:08 8,3 C 8,9 C 7,8 C 72 % 1001,2 hPa 0,0 l/m 0 min 0 min 198 W/m 25,7 km/h (4 Bft) 97,87 %
10.02.2020 12:10 8,3 C 9,4 C 7,8 C 73 % 1001,2 hPa 0,0 l/m 0 min 0 min 198 W/m 29,0 km/h (5 Bft) 100,00 %
10.02.2020 12:12 8,4 C 8,9 C 7,8 C 73 % 1001,1 hPa 0,0 l/m 0 min 0 min 179 W/m 38,6 km/h (5 Bft) 100,00 %
10.02.2020 12:14 8,4 C 8,9 C 7,8 C 72 % 1001,3 hPa 0,0 l/m 0 min 0 min 148 W/m 35,4 km/h (5 Bft) 100,00 %
10.02.2020 12:16 8,4 C 8,3 C 7,8 C 72 % 1001,2 hPa 0,0 l/m 0 min 0 min 154 W/m 25,7 km/h (4 Bft) 95,74 %
10.02.2020 12:18 8,4 C 8,3 C 7,8 C 72 % 1001,4 hPa 0,0 l/m 0 min 0 min 134 W/m 22,5 km/h (4 Bft) 100,00 %
10.02.2020 12:20 8,4 C 8,3 C 7,2 C 71 % 1001,3 hPa 0,0 l/m 0 min 0 min 105 W/m 35,4 km/h (5 Bft) 100,00 %
10.02.2020 12:22 8,4 C 8,3 C 7,2 C 71 % 1001,4 hPa 0,0 l/m 0 min 0 min 110 W/m 41,8 km/h (6 Bft) 97,83 %
10.02.2020 12:24 8,4 C 8,9 C 7,8 C 71 % 1001,3 hPa 0,0 l/m 0 min 0 min 179 W/m 38,6 km/h (5 Bft) 100,00 %
10.02.2020 12:26 8,4 C 8,3 C 7,8 C 70 % 1001,3 hPa 0,0 l/m 0 min 0 min 160 W/m 48,3 km/h (6 Bft) 100,00 %
10.02.2020 12:28 8,4 C 8,9 C 7,8 C 70 % 1001,5 hPa 0,0 l/m 0 min 0 min 169 W/m 35,4 km/h (5 Bft) 100,00 %
10.02.2020 12:30 8,4 C 8,9 C 7,8 C 70 % 1001,4 hPa 0,0 l/m 0 min 0 min 184 W/m 38,6 km/h (5 Bft) 100,00 %
10.02.2020 12:32 8,4 C 9,4 C 7,8 C 71 % 1001,5 hPa 0,0 l/m 2 min 0 min 264 W/m 25,7 km/h (4 Bft) 100,00 %
10.02.2020 12:34 8,5 C 10,0 C 7,8 C 71 % 1001,6 hPa 0,0 l/m 0 min 0 min 191 W/m 22,5 km/h (4 Bft) 100,00 %
10.02.2020 12:36 8,6 C 10,6 C 8,3 C 70 % 1001,3 hPa 0,0 l/m 0 min 0 min 198 W/m 38,6 km/h (5 Bft) 97,87 %
10.02.2020 12:38 8,6 C 11,1 C 8,9 C 70 % 1001,4 hPa 0,0 l/m 0 min 0 min 197 W/m 32,2 km/h (5 Bft) 100,00 %
10.02.2020 12:40 8,7 C 11,7 C 9,4 C 70 % 1001,3 hPa 0,0 l/m 2 min 0 min 270 W/m 25,7 km/h (4 Bft) 100,00 %
10.02.2020 12:42 8,8 C 12,2 C 10,6 C 69 % 1001,2 hPa 0,0 l/m 2 min 0 min 482 W/m 32,2 km/h (5 Bft) 100,00 %
10.02.2020 12:44 8,9 C 11,7 C 10,6 C 69 % 1001,3 hPa 0,0 l/m 2 min 0 min 419 W/m 32,2 km/h (5 Bft) 100,00 %
10.02.2020 12:46 9,0 C 12,2 C 11,1 C 69 % 1001,4 hPa 0,0 l/m 2 min 0 min 465 W/m 22,5 km/h (4 Bft) 100,00 %
10.02.2020 12:48 9,1 C 13,3 C 11,7 C 69 % 1001,4 hPa 0,0 l/m 2 min 0 min 468 W/m 19,3 km/h (3 Bft) 100,00 %
10.02.2020 12:50 9,2 C 12,8 C 11,1 C 69 % 1001,3 hPa 0,0 l/m 2 min 0 min 472 W/m 38,6 km/h (5 Bft) 97,87 %
10.02.2020 12:52 9,3 C 12,8 C 10,6 C 68 % 1001,3 hPa 0,0 l/m 2 min 0 min 459 W/m 29,0 km/h (5 Bft) 100,00 %
10.02.2020 12:54 9,3 C 12,8 C 10,6 C 68 % 1001,3 hPa 0,0 l/m 2 min 0 min 523 W/m 29,0 km/h (5 Bft) 100,00 %
10.02.2020 12:56 9,4 C 10,6 C 9,4 C 68 % 1001,3 hPa 0,0 l/m 0 min 0 min 200 W/m 35,4 km/h (5 Bft) 100,00 %
10.02.2020 12:58 9,4 C 10,0 C 8,9 C 66 % 1001,3 hPa 0,0 l/m 2 min 0 min 239 W/m 35,4 km/h (5 Bft) 97,83 %
10.02.2020 13:00 9,4 C 10,0 C 8,9 C 67 % 1001,5 hPa 0,0 l/m 2 min 0 min 222 W/m 22,5 km/h (4 Bft) 97,87 %
10.02.2020 13:02 9,4 C 10,6 C 9,4 C 67 % 1001,3 hPa 0,0 l/m 2 min 0 min 223 W/m 61,2 km/h (7 Bft) 95,74 %
10.02.2020 13:04 9,3 C 10,0 C 8,9 C 66 % 1001,2 hPa 0,0 l/m 2 min 0 min 209 W/m 38,6 km/h (5 Bft) 97,87 %
10.02.2020 13:06 9,3 C 9,4 C 8,3 C 66 % 1001,4 hPa 0,0 l/m 0 min 0 min 147 W/m 19,3 km/h (3 Bft) 97,87 %
10.02.2020 13:08 9,3 C 9,4 C 8,9 C 67 % 1001,4 hPa 0,0 l/m 0 min 0 min 155 W/m 35,4 km/h (5 Bft) 95,74 %
10.02.2020 13:10 9,3 C 10,0 C 8,9 C 67 % 1001,4 hPa 0,0 l/m 2 min 0 min 279 W/m 35,4 km/h (5 Bft) 93,48 %
10.02.2020 13:12 9,2 C 10,0 C 8,3 C 66 % 1001,4 hPa 0,0 l/m 0 min 0 min 198 W/m 35,4 km/h (5 Bft) 97,87 %
10.02.2020 13:14 9,2 C 10,6 C 8,3 C 66 % 1001,4 hPa 0,0 l/m 0 min 0 min 182 W/m 35,4 km/h (5 Bft) 97,87 %
10.02.2020 13:16 9,2 C 10,0 C 8,3 C 66 % 1001,5 hPa 0,0 l/m 0 min 0 min 158 W/m 22,5 km/h (4 Bft) 95,74 %
10.02.2020 13:18 9,2 C 10,0 C 8,3 C 66 % 1001,5 hPa 0,0 l/m 0 min 0 min 152 W/m 38,6 km/h (5 Bft) 97,87 %
10.02.2020 13:20 9,2 C 9,4 C 8,3 C 65 % 1001,5 hPa 0,0 l/m 0 min 0 min 192 W/m 35,4 km/h (5 Bft) 95,74 %
10.02.2020 13:22 9,2 C 9,4 C 8,3 C 65 % 1001,5 hPa 0,0 l/m 0 min 0 min 189 W/m 41,8 km/h (6 Bft) 95,65 %
10.02.2020 13:24 9,1 C 9,4 C 8,3 C 65 % 1001,4 hPa 0,0 l/m 0 min 0 min 142 W/m 32,2 km/h (5 Bft) 95,74 %
10.02.2020 13:26 9,1 C 8,9 C 8,3 C 65 % 1001,6 hPa 0,0 l/m 0 min 0 min 156 W/m 25,7 km/h (4 Bft) 93,62 %
10.02.2020 13:28 9,1 C 8,9 C 8,3 C 65 % 1001,5 hPa 0,0 l/m 0 min 0 min 136 W/m 35,4 km/h (5 Bft) 95,74 %
10.02.2020 13:30 9,1 C 8,9 C 8,3 C 65 % 1001,5 hPa 0,0 l/m 0 min 0 min 170 W/m 35,4 km/h (5 Bft) 95,74 %
10.02.2020 13:32 9,1 C 9,4 C 8,3 C 64 % 1001,6 hPa 0,0 l/m 0 min 0 min 142 W/m 35,4 km/h (5 Bft) 93,62 %
10.02.2020 13:34 9,1 C 8,9 C 7,8 C 64 % 1001,5 hPa 0,0 l/m 0 min 0 min 139 W/m 51,5 km/h (7 Bft) 93,48 %
10.02.2020 13:36 9,1 C 8,9 C 7,8 C 64 % 1001,6 hPa 0,0 l/m 0 min 0 min 124 W/m 38,6 km/h (5 Bft) 95,74 %
10.02.2020 13:38 9,1 C 8,9 C 7,8 C 63 % 1001,6 hPa 0,0 l/m 0 min 0 min 104 W/m 54,7 km/h (7 Bft) 93,62 %
10.02.2020 13:40 9,0 C 8,3 C 7,8 C 63 % 1001,5 hPa 0,0 l/m 0 min 0 min 67 W/m 32,2 km/h (5 Bft) 95,74 %
10.02.2020 13:42 9,0 C 9,4 C 7,8 C 63 % 1001,6 hPa 0,0 l/m 0 min 0 min 96 W/m 25,7 km/h (4 Bft) 95,74 %
10.02.2020 13:44 9,1 C 11,1 C 8,3 C 64 % 1001,7 hPa 0,0 l/m 0 min 0 min 134 W/m 25,7 km/h (4 Bft) 97,87 %
10.02.2020 13:46 9,1 C 11,1 C 8,3 C 66 % 1001,6 hPa 0,0 l/m 2 min 2 min 278 W/m 25,7 km/h (4 Bft) 97,83 %
10.02.2020 13:48 9,2 C 11,7 C 8,9 C 66 % 1001,6 hPa 0,0 l/m 2 min 0 min 341 W/m 22,5 km/h (4 Bft) 95,74 %
10.02.2020 13:50 9,3 C 12,2 C 8,9 C 65 % 1001,6 hPa 0,0 l/m 2 min 0 min 453 W/m 25,7 km/h (4 Bft) 95,74 %
10.02.2020 13:52 9,4 C 12,2 C 8,9 C 65 % 1001,6 hPa 0,0 l/m 2 min 0 min 440 W/m 29,0 km/h (5 Bft) 95,74 %
10.02.2020 13:54 9,5 C 11,1 C 8,9 C 64 % 1001,3 hPa 0,0 l/m 2 min 0 min 404 W/m 32,2 km/h (5 Bft) 95,74 %
10.02.2020 13:56 9,5 C 9,4 C 8,3 C 63 % 1001,3 hPa 0,0 l/m 0 min 0 min 80 W/m 35,4 km/h (5 Bft) 93,48 %
10.02.2020 13:58 9,4 C 8,9 C 7,8 C 62 % 1001,4 hPa 0,0 l/m 0 min 0 min 80 W/m 48,3 km/h (6 Bft) 93,62 %
10.02.2020 14:00 9,4 C 9,4 C 8,3 C 62 % 1001,3 hPa 0,0 l/m 0 min 0 min 118 W/m 32,2 km/h (5 Bft) 95,74 %
10.02.2020 14:02 9,4 C 10,6 C 8,3 C 63 % 1001,5 hPa 0,0 l/m 0 min 0 min 139 W/m 25,7 km/h (4 Bft) 93,62 %
10.02.2020 14:04 9,4 C 11,1 C 8,9 C 64 % 1001,3 hPa 0,0 l/m 2 min 0 min 210 W/m 22,5 km/h (4 Bft) 93,62 %
10.02.2020 14:06 9,4 C 11,7 C 8,9 C 64 % 1001,3 hPa 0,0 l/m 2 min 0 min 329 W/m 25,7 km/h (4 Bft) 95,74 %
10.02.2020 14:08 9,5 C 11,7 C 8,9 C 64 % 1001,3 hPa 0,0 l/m 2 min 0 min 329 W/m 25,7 km/h (4 Bft) 93,48 %
10.02.2020 14:10 9,6 C 10,6 C 8,9 C 64 % 1001,4 hPa 0,0 l/m 2 min 0 min 287 W/m 19,3 km/h (3 Bft) 93,62 %
10.02.2020 14:12 9,6 C 10,0 C 8,9 C 64 % 1001,3 hPa 0,0 l/m 0 min 0 min 170 W/m 32,2 km/h (5 Bft) 95,74 %
10.02.2020 14:14 9,6 C 9,4 C 8,3 C 64 % 1001,2 hPa 0,0 l/m 0 min 0 min 112 W/m 35,4 km/h (5 Bft) 93,62 %
10.02.2020 14:16 9,6 C 10,0 C 8,3 C 64 % 1001,4 hPa 0,0 l/m 0 min 0 min 182 W/m 22,5 km/h (4 Bft) 95,74 %
10.02.2020 14:18 9,6 C 11,7 C 8,9 C 64 % 1001,5 hPa 0,0 l/m 2 min 0 min 373 W/m 41,8 km/h (6 Bft) 97,87 %
10.02.2020 14:20 9,7 C 12,2 C 8,9 C 63 % 1001,2 hPa 0,0 l/m 2 min 0 min 478 W/m 51,5 km/h (7 Bft) 97,83 %
10.02.2020 14:22 9,8 C 12,8 C 9,4 C 63 % 1001,1 hPa 0,0 l/m 2 min 0 min 486 W/m 29,0 km/h (5 Bft) 97,87 %
10.02.2020 14:24 9,9 C 13,9 C 9,4 C 63 % 1001,2 hPa 0,0 l/m 2 min 0 min 461 W/m 22,5 km/h (4 Bft) 97,87 %
10.02.2020 14:26 10,1 C 12,8 C 9,4 C 62 % 1001,1 hPa 0,0 l/m 2 min 0 min 430 W/m 48,3 km/h (6 Bft) 97,87 %
10.02.2020 14:28 10,2 C 12,2 C 9,4 C 60 % 1000,9 hPa 0,0 l/m 2 min 0 min 394 W/m 51,5 km/h (7 Bft) 97,87 %
10.02.2020 14:30 10,2 C 10,6 C 8,9 C 60 % 1001,0 hPa 0,0 l/m 2 min 0 min 201 W/m 45,1 km/h (6 Bft) 100,00 %
10.02.2020 14:32 10,1 C 9,4 C 8,3 C 60 % 1000,9 hPa 0,0 l/m 0 min 0 min 61 W/m 41,8 km/h (6 Bft) 97,83 %
10.02.2020 14:34 10,0 C 8,9 C 8,3 C 60 % 1001,1 hPa 0,0 l/m 0 min 0 min 60 W/m 38,6 km/h (5 Bft) 100,00 %
10.02.2020 14:36 9,9 C 8,9 C 8,3 C 61 % 1001,3 hPa 0,0 l/m 0 min 0 min 67 W/m 35,4 km/h (5 Bft) 100,00 %
10.02.2020 14:38 9,8 C 8,9 C 8,3 C 61 % 1001,3 hPa 0,0 l/m 0 min 0 min 63 W/m 51,5 km/h (7 Bft) 100,00 %
10.02.2020 14:40 9,7 C 8,9 C 8,3 C 61 % 1001,3 hPa 0,0 l/m 0 min 0 min 80 W/m 48,3 km/h (6 Bft) 100,00 %
10.02.2020 14:42 9,6 C 8,9 C 8,3 C 61 % 1001,2 hPa 0,0 l/m 0 min 0 min 74 W/m 35,4 km/h (5 Bft) 97,83 %
10.02.2020 14:44 9,5 C 8,9 C 8,3 C 62 % 1001,3 hPa 0,0 l/m 0 min 0 min 71 W/m 48,3 km/h (6 Bft) 100,00 %
10.02.2020 14:46 9,4 C 8,9 C 8,3 C 62 % 1001,4 hPa 0,0 l/m 0 min 0 min 59 W/m 32,2 km/h (5 Bft) 100,00 %
10.02.2020 14:48 9,4 C 8,9 C 8,3 C 62 % 1001,5 hPa 0,0 l/m 0 min 0 min 99 W/m 22,5 km/h (4 Bft) 100,00 %
10.02.2020 14:50 9,4 C 8,9 C 8,3 C 64 % 1001,5 hPa 0,0 l/m 0 min 0 min 117 W/m 25,7 km/h (4 Bft) 100,00 %
10.02.2020 14:52 9,4 C 8,9 C 8,3 C 64 % 1001,4 hPa 0,0 l/m 0 min 0 min 102 W/m 19,3 km/h (3 Bft) 95,74 %
10.02.2020 14:54 9,3 C 8,9 C 8,3 C 64 % 1001,5 hPa 0,0 l/m 0 min 0 min 93 W/m 19,3 km/h (3 Bft) 97,83 %
10.02.2020 14:56 9,3 C 8,9 C 8,3 C 65 % 1001,4 hPa 0,0 l/m 0 min 0 min 90 W/m 16,1 km/h (3 Bft) 100,00 %
10.02.2020 14:58 9,3 C 9,4 C 8,3 C 65 % 1001,4 hPa 0,0 l/m 0 min 0 min 109 W/m 22,5 km/h (4 Bft) 100,00 %
10.02.2020 15:00 9,3 C 9,4 C 8,3 C 65 % 1001,4 hPa 0,0 l/m 0 min 0 min 104 W/m 19,3 km/h (3 Bft) 100,00 %
10.02.2020 15:02 9,3 C 9,4 C 8,3 C 65 % 1001,3 hPa 0,0 l/m 0 min 0 min 91 W/m 22,5 km/h (4 Bft) 100,00 %
10.02.2020 15:04 9,3 C 9,4 C 8,3 C 66 % 1001,4 hPa 0,0 l/m 0 min 0 min 97 W/m 22,5 km/h (4 Bft) 97,87 %
10.02.2020 15:06 9,3 C 9,4 C 8,3 C 66 % 1001,3 hPa 0,0 l/m 0 min 0 min 94 W/m 22,5 km/h (4 Bft) 100,00 %
10.02.2020 15:08 9,3 C 9,4 C 8,3 C 66 % 1001,3 hPa 0,0 l/m 0 min 0 min 98 W/m 25,7 km/h (4 Bft) 100,00 %
10.02.2020 15:10 9,4 C 9,4 C 8,3 C 66 % 1001,4 hPa 0,0 l/m 0 min 0 min 123 W/m 29,0 km/h (5 Bft) 100,00 %
10.02.2020 15:12 9,4 C 9,4 C 8,3 C 67 % 1001,3 hPa 0,0 l/m 0 min 0 min 145 W/m 29,0 km/h (5 Bft) 100,00 %
10.02.2020 15:14 9,4 C 9,4 C 8,9 C 67 % 1001,2 hPa 0,0 l/m 0 min 0 min 132 W/m 29,0 km/h (5 Bft) 100,00 %
10.02.2020 15:16 9,4 C 9,4 C 8,9 C 66 % 1001,3 hPa 0,0 l/m 0 min 0 min 105 W/m 25,7 km/h (4 Bft) 100,00 %
10.02.2020 15:18 9,5 C 9,4 C 8,3 C 66 % 1001,2 hPa 0,0 l/m 0 min 0 min 90 W/m 57,9 km/h (7 Bft) 100,00 %
10.02.2020 15:20 9,5 C 9,4 C 8,3 C 66 % 1001,2 hPa 0,0 l/m 0 min 0 min 87 W/m 22,5 km/h (4 Bft) 100,00 %
10.02.2020 15:22 9,5 C 9,4 C 8,3 C 67 % 1001,3 hPa 0,0 l/m 0 min 0 min 86 W/m 12,9 km/h (3 Bft) 100,00 %
10.02.2020 15:24 9,5 C 9,4 C 8,3 C 67 % 1001,2 hPa 0,0 l/m 0 min 0 min 82 W/m 22,5 km/h (4 Bft) 97,87 %
10.02.2020 15:26 9,5 C 9,4 C 8,3 C 67 % 1001,0 hPa 0,0 l/m 0 min 0 min 83 W/m 25,7 km/h (4 Bft) 100,00 %
10.02.2020 15:28 9,5 C 9,4 C 8,3 C 67 % 1001,0 hPa 0,0 l/m 0 min 0 min 79 W/m 29,0 km/h (5 Bft) 100,00 %
10.02.2020 15:30 9,6 C 9,4 C 8,3 C 67 % 1001,2 hPa 0,0 l/m 0 min 0 min 84 W/m 25,7 km/h (4 Bft) 100,00 %
10.02.2020 15:32 9,6 C 9,4 C 8,3 C 68 % 1001,2 hPa 0,0 l/m 0 min 0 min 101 W/m 16,1 km/h (3 Bft) 100,00 %
10.02.2020 15:34 9,6 C 9,4 C 8,3 C 69 % 1001,1 hPa 0,0 l/m 0 min 0 min 113 W/m 29,0 km/h (5 Bft) 100,00 %
10.02.2020 15:36 9,6 C 9,4 C 8,3 C 69 % 1001,0 hPa 0,0 l/m 0 min 0 min 113 W/m 25,7 km/h (4 Bft) 100,00 %
10.02.2020 15:38 9,6 C 9,4 C 8,3 C 69 % 1001,1 hPa 0,0 l/m 0 min 0 min 104 W/m 25,7 km/h (4 Bft) 97,87 %
10.02.2020 15:40 9,6 C 9,4 C 8,3 C 70 % 1001,0 hPa 0,0 l/m 0 min 0 min 85 W/m 22,5 km/h (4 Bft) 100,00 %
10.02.2020 15:42 9,6 C 9,4 C 8,3 C 71 % 1000,9 hPa 0,0 l/m 0 min 0 min 80 W/m 22,5 km/h (4 Bft) 100,00 %
10.02.2020 15:44 9,6 C 9,4 C 8,3 C 71 % 1001,0 hPa 0,0 l/m 0 min 0 min 93 W/m 29,0 km/h (5 Bft) 100,00 %
10.02.2020 15:46 9,6 C 9,4 C 8,9 C 71 % 1001,0 hPa 0,0 l/m 0 min 0 min 92 W/m 25,7 km/h (4 Bft) 100,00 %
10.02.2020 15:48 9,6 C 9,4 C 8,3 C 72 % 1000,9 hPa 0,0 l/m 0 min 0 min 67 W/m 32,2 km/h (5 Bft) 100,00 %
10.02.2020 15:50 9,6 C 8,9 C 8,3 C 72 % 1001,0 hPa 0,0 l/m 0 min 0 min 69 W/m 25,7 km/h (4 Bft) 100,00 %
10.02.2020 15:52 9,6 C 8,9 C 8,3 C 72 % 1001,0 hPa 0,0 l/m 0 min 0 min 82 W/m 32,2 km/h (5 Bft) 100,00 %
10.02.2020 15:54 9,6 C 8,9 C 8,3 C 73 % 1000,8 hPa 0,0 l/m 0 min 0 min 80 W/m 41,8 km/h (6 Bft) 100,00 %
10.02.2020 15:56 9,5 C 8,9 C 8,3 C 73 % 1000,9 hPa 0,0 l/m 0 min 0 min 73 W/m 22,5 km/h (4 Bft) 97,87 %
10.02.2020 15:58 9,4 C 8,3 C 7,8 C 73 % 1000,8 hPa 0,0 l/m 0 min 0 min 70 W/m 45,1 km/h (6 Bft) 97,87 %
10.02.2020 16:00 9,4 C 8,3 C 7,8 C 73 % 1000,8 hPa 0,0 l/m 0 min 0 min 66 W/m 38,6 km/h (5 Bft) 97,87 %
10.02.2020 16:02 9,3 C 8,3 C 7,8 C 74 % 1001,0 hPa 0,0 l/m 0 min 0 min 60 W/m 35,4 km/h (5 Bft) 97,87 %
10.02.2020 16:04 9,3 C 8,3 C 7,8 C 74 % 1000,9 hPa 0,0 l/m 0 min 0 min 63 W/m 25,7 km/h (4 Bft) 97,62 %
10.02.2020 16:06 9,2 C 8,3 C 7,8 C 75 % 1000,9 hPa 0,0 l/m 0 min 0 min 61 W/m 35,4 km/h (5 Bft) 93,62 %
10.02.2020 16:08 9,2 C 8,3 C 7,8 C 75 % 1001,0 hPa 0,0 l/m 0 min 0 min 55 W/m 25,7 km/h (4 Bft) 97,87 %
10.02.2020 16:10 9,2 C 8,3 C 7,8 C 75 % 1001,0 hPa 0,0 l/m 0 min 0 min 47 W/m 51,5 km/h (7 Bft) 97,87 %
10.02.2020 16:12 9,1 C 8,3 C 7,8 C 75 % 1001,1 hPa 0,0 l/m 0 min 0 min 43 W/m 54,7 km/h (7 Bft) 97,87 %
10.02.2020 16:14 9,1 C 8,3 C 7,8 C 75 % 1000,9 hPa 0,0 l/m 0 min 0 min 44 W/m 41,8 km/h (6 Bft) 97,83 %
10.02.2020 16:16 9,0 C 8,3 C 7,8 C 75 % 1000,6 hPa 0,0 l/m 0 min 0 min 47 W/m 45,1 km/h (6 Bft) 91,49 %
10.02.2020 16:18 8,9 C 8,3 C 7,8 C 76 % 1000,6 hPa 0,0 l/m 0 min 0 min 46 W/m 29,0 km/h (5 Bft) 93,62 %
10.02.2020 16:20 8,9 C 8,3 C 7,8 C 76 % 1000,6 hPa 0,0 l/m 0 min 0 min 43 W/m 38,6 km/h (5 Bft) 97,87 %
10.02.2020 16:22 8,9 C 8,3 C 7,8 C 76 % 1000,6 hPa 0,0 l/m 0 min 0 min 39 W/m 41,8 km/h (6 Bft) 95,74 %
10.02.2020 16:24 8,9 C 8,3 C 7,8 C 76 % 1000,6 hPa 0,0 l/m 0 min 0 min 32 W/m 29,0 km/h (5 Bft) 95,74 %
10.02.2020 16:26 8,8 C 7,8 C 7,8 C 76 % 1000,6 hPa 0,0 l/m 0 min 0 min 29 W/m 29,0 km/h (5 Bft) 93,48 %
10.02.2020 16:28 8,8 C 7,8 C 7,8 C 76 % 1000,6 hPa 0,0 l/m 0 min 0 min 26 W/m 51,5 km/h (7 Bft) 93,62 %
10.02.2020 16:30 8,8 C 7,8 C 7,8 C 77 % 1000,5 hPa 0,0 l/m 0 min 0 min 26 W/m 45,1 km/h (6 Bft) 93,62 %
10.02.2020 16:32 8,8 C 7,8 C 7,2 C 77 % 1000,5 hPa 0,0 l/m 0 min 0 min 24 W/m 25,7 km/h (4 Bft) 91,49 %
10.02.2020 16:34 8,8 C 7,8 C 7,2 C 77 % 1000,4 hPa 0,0 l/m 0 min 0 min 21 W/m 22,5 km/h (4 Bft) 89,36 %
10.02.2020 16:36 8,7 C 7,8 C 7,2 C 77 % 1000,3 hPa 0,0 l/m 0 min 0 min 21 W/m 38,6 km/h (5 Bft) 93,62 %
10.02.2020 16:38 8,7 C 7,8 C 7,2 C 77 % 1000,4 hPa 0,0 l/m 0 min 0 min 15 W/m 35,4 km/h (5 Bft) 93,48 %
10.02.2020 16:40 8,7 C 7,8 C 7,2 C 77 % 1000,5 hPa 0,0 l/m 0 min 0 min 11 W/m 38,6 km/h (5 Bft) 93,62 %
10.02.2020 16:42 8,7 C 7,8 C 7,2 C 77 % 1000,6 hPa 0,0 l/m 0 min 0 min 8 W/m 29,0 km/h (5 Bft) 91,49 %
10.02.2020 16:44 8,7 C 7,8 C 7,2 C 77 % 1000,5 hPa 0,0 l/m 0 min 0 min 6 W/m 22,5 km/h (4 Bft) 93,62 %
10.02.2020 16:46 8,7 C 7,8 C 7,2 C 77 % 1000,4 hPa 0,0 l/m 0 min 0 min 4 W/m 38,6 km/h (5 Bft) 93,62 %
10.02.2020 16:48 8,6 C 7,8 C 7,2 C 77 % 1000,3 hPa 0,0 l/m 0 min 2 min 0 W/m 70,8 km/h (8 Bft) 93,62 %
10.02.2020 16:50 8,6 C 6,7 C 6,7 C 77 % 1000,8 hPa 0,0 l/m 0 min 2 min 0 W/m 57,9 km/h (7 Bft) 93,48 %
10.02.2020 16:52 8,4 C 6,1 C 5,6 C 77 % 1000,9 hPa 0,0 l/m 0 min 2 min 0 W/m 45,1 km/h (6 Bft) 91,49 %
10.02.2020 16:54 8,3 C 5,6 C 5,0 C 78 % 1000,8 hPa 0,0 l/m 0 min 2 min 0 W/m 38,6 km/h (5 Bft) 91,49 %
10.02.2020 16:56 8,1 C 5,0 C 4,4 C 78 % 1000,9 hPa 0,0 l/m 0 min 2 min 1 W/m 25,7 km/h (4 Bft) 93,62 %
10.02.2020 16:58 7,8 C 4,4 C 3,9 C 79 % 1000,9 hPa 0,2 l/m 0 min 2 min 5 W/m 38,6 km/h (5 Bft) 95,74 %
10.02.2020 17:00 7,6 C 3,9 C 3,9 C 80 % 1000,9 hPa 0,0 l/m 0 min 2 min 1 W/m 29,0 km/h (5 Bft) 95,74 %
10.02.2020 17:02 7,3 C 3,9 C 3,9 C 81 % 1000,8 hPa 0,0 l/m 0 min 2 min 0 W/m 22,5 km/h (4 Bft) 92,00 %
10.02.2020 17:04 7,1 C 4,4 C 3,9 C 81 % 1000,7 hPa 0,0 l/m 0 min 0 min 0 W/m 29,0 km/h (5 Bft) 95,74 %
10.02.2020 17:06 6,9 C 4,4 C 3,9 C 82 % 1000,6 hPa 0,0 l/m 0 min 0 min 0 W/m 29,0 km/h (5 Bft) 93,62 %
10.02.2020 17:08 6,8 C 4,4 C 3,9 C 83 % 1000,6 hPa 0,0 l/m 0 min 0 min 0 W/m 16,1 km/h (3 Bft) 93,62 %
10.02.2020 17:10 6,8 C 4,4 C 3,9 C 83 % 1000,6 hPa 0,0 l/m 0 min 0 min 0 W/m 12,9 km/h (3 Bft) 97,87 %
10.02.2020 17:12 6,7 C 4,4 C 3,9 C 84 % 1000,5 hPa 0,0 l/m 0 min 0 min 0 W/m 12,9 km/h (3 Bft) 97,87 %
10.02.2020 17:14 6,6 C 4,4 C 3,9 C 84 % 1000,3 hPa 0,0 l/m 0 min 0 min 5 W/m 19,3 km/h (3 Bft) 100,00 %
10.02.2020 17:16 6,6 C 4,4 C 3,9 C 85 % 1000,2 hPa 0,0 l/m 0 min 0 min 6 W/m 19,3 km/h (3 Bft) 97,87 %
10.02.2020 17:18 6,5 C 4,4 C 4,4 C 85 % 1000,2 hPa 0,0 l/m 0 min 0 min 5 W/m 22,5 km/h (4 Bft) 100,00 %
10.02.2020 17:20 6,4 C 5,0 C 4,4 C 85 % 1000,0 hPa 0,0 l/m 0 min 0 min 2 W/m 22,5 km/h (4 Bft) 100,00 %
10.02.2020 17:22 6,4 C 5,0 C 4,4 C 86 % 999,9 hPa 0,0 l/m 0 min 0 min 0 W/m 32,2 km/h (5 Bft) 97,87 %
10.02.2020 17:24 6,4 C 5,0 C 4,4 C 86 % 999,8 hPa 0,0 l/m 0 min 0 min 0 W/m 25,7 km/h (4 Bft) 100,00 %
10.02.2020 17:26 6,3 C 5,0 C 4,4 C 86 % 999,9 hPa 0,0 l/m 0 min 0 min 0 W/m 22,5 km/h (4 Bft) 100,00 %
10.02.2020 17:28 6,3 C 5,0 C 4,4 C 86 % 999,9 hPa 0,0 l/m 0 min 0 min 0 W/m 25,7 km/h (4 Bft) 97,87 %
10.02.2020 17:30 6,3 C 5,0 C 4,4 C 86 % 999,7 hPa 0,0 l/m 0 min 0 min 0 W/m 22,5 km/h (4 Bft) 97,87 %
10.02.2020 17:32 6,3 C 5,0 C 4,4 C 86 % 999,7 hPa 0,0 l/m 0 min 0 min 0 W/m 22,5 km/h (4 Bft) 100,00 %
10.02.2020 17:34 6,3 C 5,0 C 4,4 C 86 % 999,6 hPa 0,0 l/m 0 min 0 min 0 W/m 41,8 km/h (6 Bft) 100,00 %
10.02.2020 17:36 6,4 C 5,0 C 4,4 C 87 % 999,6 hPa 0,0 l/m 0 min 0 min 0 W/m 19,3 km/h (3 Bft) 100,00 %
10.02.2020 17:38 6,4 C 5,0 C 4,4 C 87 % 999,6 hPa 0,0 l/m 0 min 0 min 0 W/m 29,0 km/h (5 Bft) 97,87 %
10.02.2020 17:40 6,4 C 5,0 C 4,4 C 87 % 999,4 hPa 0,0 l/m 0 min 0 min 0 W/m 32,2 km/h (5 Bft) 100,00 %
10.02.2020 17:42 6,5 C 5,6 C 5,0 C 87 % 999,5 hPa 0,0 l/m 0 min 0 min 0 W/m 38,6 km/h (5 Bft) 100,00 %
10.02.2020 17:44 6,5 C 5,6 C 5,0 C 87 % 999,5 hPa 0,0 l/m 0 min 0 min 0 W/m 35,4 km/h (5 Bft) 100,00 %
10.02.2020 17:46 6,5 C 5,6 C 5,0 C 87 % 999,5 hPa 0,0 l/m 0 min 0 min 0 W/m 29,0 km/h (5 Bft) 93,62 %
10.02.2020 17:48 6,6 C 5,6 C 5,0 C 87 % 999,2 hPa 0,0 l/m 0 min 0 min 0 W/m 25,7 km/h (4 Bft) 97,87 %
10.02.2020 17:50 6,6 C 5,6 C 5,0 C 87 % 999,1 hPa 0,0 l/m 0 min 0 min 0 W/m 25,7 km/h (4 Bft) 100,00 %
10.02.2020 17:52 6,6 C 5,6 C 5,0 C 87 % 999,1 hPa 0,0 l/m 0 min 0 min 0 W/m 38,6 km/h (5 Bft) 100,00 %
10.02.2020 17:54 6,7 C 5,6 C 5,0 C 87 % 999,0 hPa 0,0 l/m 0 min 0 min 0 W/m 25,7 km/h (4 Bft) 97,87 %
10.02.2020 17:56 6,7 C 5,6 C 5,0 C 87 % 998,8 hPa 0,0 l/m 0 min 0 min 0 W/m 32,2 km/h (5 Bft) 100,00 %
10.02.2020 17:58 6,7 C 5,6 C 5,0 C 87 % 998,8 hPa 0,0 l/m 0 min 0 min 0 W/m 22,5 km/h (4 Bft) 100,00 %
10.02.2020 18:00 6,8 C 6,1 C 5,0 C 87 % 998,6 hPa 0,0 l/m 0 min 0 min 0 W/m 25,7 km/h (4 Bft) 100,00 %
10.02.2020 18:02 6,8 C 6,1 C 5,0 C 87 % 998,6 hPa 0,0 l/m 0 min 0 min 0 W/m 32,2 km/h (5 Bft) 97,87 %
10.02.2020 18:04 6,8 C 6,1 C 5,6 C 87 % 998,5 hPa 0,0 l/m 0 min 0 min 0 W/m 48,3 km/h (6 Bft) 100,00 %
10.02.2020 18:06 6,9 C 6,1 C 5,6 C 87 % 998,3 hPa 0,0 l/m 0 min 0 min 0 W/m 22,5 km/h (4 Bft) 100,00 %
10.02.2020 18:08 7,0 C 6,7 C 5,6 C 87 % 998,3 hPa 0,0 l/m 0 min 0 min 0 W/m 29,0 km/h (5 Bft) 100,00 %
10.02.2020 18:10 7,0 C 6,7 C 5,6 C 87 % 998,2 hPa 0,0 l/m 0 min 0 min 0 W/m 41,8 km/h (6 Bft) 97,87 %
10.02.2020 18:12 7,1 C 6,7 C 5,6 C 86 % 998,3 hPa 0,0 l/m 0 min 0 min 0 W/m 45,1 km/h (6 Bft) 97,83 %
10.02.2020 18:14 7,1 C 6,7 C 5,6 C 86 % 998,3 hPa 0,0 l/m 0 min 0 min 0 W/m 38,6 km/h (5 Bft) 100,00 %
10.02.2020 18:16 7,2 C 6,7 C 5,6 C 86 % 998,4 hPa 0,0 l/m 0 min 0 min 0 W/m 32,2 km/h (5 Bft) 100,00 %
10.02.2020 18:18 7,2 C 6,7 C 5,6 C 86 % 998,2 hPa 0,0 l/m 0 min 0 min 0 W/m 38,6 km/h (5 Bft) 100,00 %
10.02.2020 18:20 7,2 C 6,7 C 5,6 C 85 % 998,2 hPa 0,0 l/m 0 min 0 min 0 W/m 35,4 km/h (5 Bft) 100,00 %
10.02.2020 18:22 7,3 C 6,7 C 5,6 C 85 % 998,1 hPa 0,0 l/m 0 min 0 min 0 W/m 32,2 km/h (5 Bft) 100,00 %
10.02.2020 18:24 7,3 C 6,7 C 5,6 C 85 % 998,1 hPa 0,0 l/m 0 min 0 min 0 W/m 41,8 km/h (6 Bft) 100,00 %
10.02.2020 18:26 7,3 C 6,7 C 5,6 C 85 % 998,2 hPa 0,0 l/m 0 min 0 min 0 W/m 25,7 km/h (4 Bft) 100,00 %
10.02.2020 18:28 7,3 C 6,7 C 5,6 C 85 % 998,2 hPa 0,0 l/m 0 min 0 min 0 W/m 32,2 km/h (5 Bft) 100,00 %
10.02.2020 18:30 7,3 C 6,7 C 5,6 C 85 % 998,0 hPa 0,0 l/m 0 min 0 min 0 W/m 29,0 km/h (5 Bft) 100,00 %
10.02.2020 18:32 7,3 C 6,7 C 5,6 C 85 % 998,1 hPa 0,0 l/m 0 min 0 min 0 W/m 29,0 km/h (5 Bft) 100,00 %
10.02.2020 18:34 7,3 C 6,7 C 5,6 C 85 % 997,9 hPa 0,0 l/m 0 min 0 min 0 W/m 29,0 km/h (5 Bft) 100,00 %
10.02.2020 18:36 7,3 C 6,7 C 5,6 C 85 % 997,8 hPa 0,0 l/m 0 min 0 min 0 W/m 25,7 km/h (4 Bft) 97,83 %
10.02.2020 18:38 7,3 C 6,7 C 5,6 C 85 % 997,7 hPa 0,0 l/m 0 min 0 min 0 W/m 25,7 km/h (4 Bft) 100,00 %
10.02.2020 18:40 7,3 C 6,7 C 5,6 C 84 % 997,4 hPa 0,0 l/m 0 min 0 min 0 W/m 54,7 km/h (7 Bft) 100,00 %
10.02.2020 18:42 7,3 C 6,7 C 5,6 C 84 % 997,1 hPa 0,0 l/m 0 min 0 min 0 W/m 32,2 km/h (5 Bft) 97,87 %
10.02.2020 18:44 7,3 C 6,7 C 5,6 C 84 % 997,3 hPa 0,0 l/m 0 min 0 min 0 W/m 35,4 km/h (5 Bft) 100,00 %
10.02.2020 18:46 7,3 C 6,7 C 5,6 C 84 % 997,1 hPa 0,0 l/m 0 min 0 min 0 W/m 41,8 km/h (6 Bft) 100,00 %
10.02.2020 18:48 7,3 C 6,7 C 5,6 C 84 % 997,2 hPa 0,0 l/m 0 min 0 min 0 W/m 54,7 km/h (7 Bft) 100,00 %
10.02.2020 18:50 7,3 C 6,7 C 5,6 C 84 % 997,1 hPa 0,0 l/m 0 min 0 min 0 W/m 45,1 km/h (6 Bft) 100,00 %
10.02.2020 18:52 7,3 C 6,7 C 5,6 C 84 % 997,2 hPa 0,0 l/m 0 min 0 min 0 W/m 48,3 km/h (6 Bft) 97,87 %
10.02.2020 18:54 7,3 C 6,7 C 5,6 C 84 % 997,1 hPa 0,0 l/m 0 min 0 min 0 W/m 38,6 km/h (5 Bft) 100,00 %
10.02.2020 18:56 7,3 C 6,7 C 5,6 C 84 % 996,9 hPa 0,0 l/m 0 min 0 min 0 W/m 61,2 km/h (7 Bft) 95,74 %
10.02.2020 18:58 7,3 C 6,7 C 5,6 C 84 % 996,7 hPa 0,0 l/m 0 min 0 min 0 W/m 54,7 km/h (7 Bft) 97,83 %
10.02.2020 19:00 7,3 C 6,7 C 5,6 C 84 % 996,5 hPa 0,0 l/m 0 min 0 min 0 W/m 38,6 km/h (5 Bft) 97,87 %
10.02.2020 19:02 7,3 C 6,7 C 5,6 C 84 % 996,4 hPa 0,0 l/m 0 min 0 min 0 W/m 45,1 km/h (6 Bft) 97,87 %
10.02.2020 19:04 7,3 C 6,7 C 6,1 C 84 % 996,4 hPa 0,0 l/m 0 min 0 min 0 W/m 48,3 km/h (6 Bft) 95,74 %
10.02.2020 19:06 7,3 C 6,7 C 6,1 C 84 % 996,5 hPa 0,0 l/m 0 min 0 min 0 W/m 45,1 km/h (6 Bft) 95,74 %
10.02.2020 19:08 7,3 C 6,7 C 6,1 C 84 % 996,5 hPa 0,0 l/m 0 min 0 min 0 W/m 51,5 km/h (7 Bft) 97,87 %
10.02.2020 19:10 7,3 C 6,7 C 6,1 C 84 % 996,7 hPa 0,0 l/m 0 min 0 min 0 W/m 29,0 km/h (5 Bft) 97,83 %
10.02.2020 19:12 7,3 C 6,7 C 6,1 C 84 % 996,6 hPa 0,0 l/m 0 min 0 min 0 W/m 51,5 km/h (7 Bft) 97,87 %
10.02.2020 19:14 7,3 C 6,7 C 6,1 C 84 % 996,5 hPa 0,0 l/m 0 min 0 min 0 W/m 54,7 km/h (7 Bft) 97,87 %
10.02.2020 19:16 7,3 C 6,7 C 6,1 C 84 % 996,3 hPa 0,0 l/m 0 min 0 min 0 W/m 38,6 km/h (5 Bft) 97,87 %
10.02.2020 19:18 7,3 C 6,7 C 5,6 C 84 % 996,3 hPa 0,0 l/m 0 min 0 min 0 W/m 38,6 km/h (5 Bft) 97,87 %
10.02.2020 19:20 7,2 C 6,7 C 5,6 C 84 % 996,3 hPa 0,0 l/m 0 min 0 min 0 W/m 29,0 km/h (5 Bft) 97,87 %
10.02.2020 19:22 7,2 C 6,7 C 5,6 C 84 % 996,2 hPa 0,0 l/m 0 min 0 min 0 W/m 64,4 km/h (8 Bft) 95,65 %
10.02.2020 19:24 7,2 C 6,7 C 6,1 C 83 % 996,2 hPa 0,0 l/m 0 min 0 min 0 W/m 38,6 km/h (5 Bft) 95,74 %
10.02.2020 19:26 7,2 C 6,7 C 6,1 C 83 % 996,1 hPa 0,0 l/m 0 min 0 min 0 W/m 38,6 km/h (5 Bft) 93,62 %
10.02.2020 19:28 7,2 C 6,1 C 5,6 C 83 % 996,1 hPa 0,0 l/m 0 min 0 min 0 W/m 35,4 km/h (5 Bft) 95,74 %
10.02.2020 19:30 7,2 C 6,1 C 5,6 C 83 % 996,1 hPa 0,0 l/m 0 min 0 min 0 W/m 29,0 km/h (5 Bft) 93,62 %
10.02.2020 19:32 7,2 C 6,1 C 5,6 C 84 % 996,3 hPa 0,0 l/m 0 min 0 min 0 W/m 35,4 km/h (5 Bft) 95,74 %
10.02.2020 19:34 7,2 C 6,1 C 5,6 C 84 % 996,1 hPa 0,0 l/m 0 min 0 min 0 W/m 41,8 km/h (6 Bft) 95,65 %
10.02.2020 19:36 7,2 C 6,7 C 5,6 C 84 % 996,3 hPa 0,0 l/m 0 min 0 min 0 W/m 41,8 km/h (6 Bft) 93,62 %
10.02.2020 19:38 7,2 C 6,7 C 6,1 C 84 % 996,4 hPa 0,0 l/m 0 min 0 min 0 W/m 38,6 km/h (5 Bft) 95,74 %
10.02.2020 19:40 7,2 C 6,7 C 6,1 C 83 % 996,2 hPa 0,0 l/m 0 min 0 min 0 W/m 35,4 km/h (5 Bft) 97,87 %
10.02.2020 19:42 7,2 C 6,7 C 6,1 C 83 % 996,2 hPa 0,0 l/m 0 min 0 min 0 W/m 45,1 km/h (6 Bft) 97,87 %
10.02.2020 19:44 7,2 C 6,7 C 6,1 C 84 % 996,3 hPa 0,0 l/m 0 min 0 min 0 W/m 29,0 km/h (5 Bft) 93,62 %
10.02.2020 19:46 7,2 C 6,7 C 6,1 C 84 % 996,3 hPa 0,0 l/m 0 min 0 min 0 W/m 25,7 km/h (4 Bft) 97,83 %
10.02.2020 19:48 7,2 C 6,7 C 6,1 C 84 % 996,2 hPa 0,0 l/m 0 min 0 min 0 W/m 29,0 km/h (5 Bft) 97,87 %
10.02.2020 19:50 7,2 C 6,7 C 6,1 C 84 % 996,0 hPa 0,0 l/m 0 min 0 min 0 W/m 29,0 km/h (5 Bft) 97,87 %
10.02.2020 19:52 7,2 C 6,7 C 6,1 C 84 % 996,0 hPa 0,0 l/m 0 min 0 min 0 W/m 29,0 km/h (5 Bft) 95,74 %
10.02.2020 19:54 7,2 C 6,7 C 6,1 C 84 % 995,9 hPa 0,0 l/m 0 min 0 min 0 W/m 25,7 km/h (4 Bft) 95,74 %
10.02.2020 19:56 7,2 C 6,7 C 6,1 C 84 % 995,9 hPa 0,0 l/m 0 min 0 min 0 W/m 35,4 km/h (5 Bft) 95,74 %
10.02.2020 19:58 7,2 C 6,7 C 6,1 C 84 % 995,8 hPa 0,0 l/m 0 min 0 min 0 W/m 51,5 km/h (7 Bft) 95,65 %
10.02.2020 20:00 7,2 C 6,7 C 6,1 C 84 % 995,7 hPa 0,0 l/m 0 min 0 min 0 W/m 35,4 km/h (5 Bft) 95,74 %
10.02.2020 20:02 7,2 C 6,7 C 6,1 C 84 % 995,5 hPa 0,0 l/m 0 min 0 min 0 W/m 22,5 km/h (4 Bft) 93,62 %
10.02.2020 20:04 7,2 C 6,1 C 5,6 C 84 % 995,3 hPa 0,0 l/m 0 min 0 min 0 W/m 22,5 km/h (4 Bft) 95,74 %
10.02.2020 20:06 7,2 C 6,1 C 5,6 C 84 % 995,2 hPa 0,0 l/m 0 min 0 min 0 W/m 25,7 km/h (4 Bft) 93,62 %
10.02.2020 20:08 7,2 C 6,7 C 5,6 C 84 % 995,4 hPa 0,0 l/m 0 min 0 min 0 W/m 32,2 km/h (5 Bft) 97,83 %
10.02.2020 20:10 7,2 C 6,1 C 5,6 C 84 % 995,4 hPa 0,0 l/m 0 min 0 min 0 W/m 25,7 km/h (4 Bft) 93,62 %
10.02.2020 20:12 7,1 C 6,1 C 5,6 C 84 % 995,4 hPa 0,0 l/m 0 min 0 min 0 W/m 32,2 km/h (5 Bft) 95,74 %
10.02.2020 20:14 7,1 C 6,7 C 5,6 C 84 % 995,3 hPa 0,0 l/m 0 min 0 min 0 W/m 38,6 km/h (5 Bft) 97,87 %
10.02.2020 20:16 7,1 C 6,7 C 5,6 C 84 % 995,2 hPa 0,0 l/m 0 min 0 min 0 W/m 38,6 km/h (5 Bft) 97,87 %
10.02.2020 20:18 7,1 C 6,7 C 6,1 C 84 % 995,0 hPa 0,0 l/m 0 min 0 min 0 W/m 54,7 km/h (7 Bft) 97,87 %
10.02.2020 20:20 7,1 C 6,7 C 6,1 C 84 % 995,0 hPa 0,0 l/m 0 min 0 min 0 W/m 35,4 km/h (5 Bft) 95,65 %
10.02.2020 20:22 7,2 C 6,7 C 5,6 C 84 % 995,1 hPa 0,0 l/m 0 min 0 min 0 W/m 25,7 km/h (4 Bft) 95,74 %
10.02.2020 20:24 7,2 C 6,7 C 6,1 C 84 % 995,2 hPa 0,0 l/m 0 min 0 min 0 W/m 29,0 km/h (5 Bft) 97,87 %
10.02.2020 20:26 7,2 C 6,7 C 6,1 C 84 % 995,2 hPa 0,0 l/m 0 min 0 min 0 W/m 45,1 km/h (6 Bft) 97,87 %
10.02.2020 20:28 7,2 C 6,7 C 5,6 C 84 % 995,1 hPa 0,0 l/m 0 min 0 min 0 W/m 25,7 km/h (4 Bft) 97,87 %
10.02.2020 20:30 7,2 C 6,7 C 6,1 C 84 % 995,2 hPa 0,0 l/m 0 min 0 min 0 W/m 38,6 km/h (5 Bft) 95,74 %
10.02.2020 20:32 7,2 C 6,7 C 6,1 C 84 % 995,1 hPa 0,0 l/m 0 min 0 min 0 W/m 29,0 km/h (5 Bft) 97,83 %
10.02.2020 20:34 7,2 C 6,7 C 6,1 C 84 % 995,0 hPa 0,0 l/m 0 min 0 min 0 W/m 32,2 km/h (5 Bft) 97,87 %
10.02.2020 20:36 7,2 C 6,7 C 6,1 C 84 % 995,1 hPa 0,0 l/m 0 min 0 min 0 W/m 29,0 km/h (5 Bft) 97,87 %
10.02.2020 20:38 7,2 C 6,7 C 6,1 C 84 % 995,1 hPa 0,0 l/m 0 min 0 min 0 W/m 25,7 km/h (4 Bft) 97,87 %
10.02.2020 20:40 7,2 C 6,7 C 6,1 C 84 % 995,1 hPa 0,0 l/m 0 min 0 min 0 W/m 45,1 km/h (6 Bft) 97,87 %
10.02.2020 20:42 7,2 C 6,7 C 6,1 C 84 % 995,0 hPa 0,0 l/m 0 min 0 min 0 W/m 35,4 km/h (5 Bft) 97,87 %
10.02.2020 20:44 7,2 C 6,7 C 6,1 C 84 % 995,1 hPa 0,0 l/m 0 min 0 min 0 W/m 25,7 km/h (4 Bft) 97,83 %
10.02.2020 20:46 7,2 C 6,7 C 6,1 C 84 % 995,0 hPa 0,0 l/m 0 min 0 min 0 W/m 29,0 km/h (5 Bft) 97,87 %
10.02.2020 20:48 7,2 C 6,7 C 5,6 C 85 % 995,0 hPa 0,0 l/m 0 min 0 min 0 W/m 29,0 km/h (5 Bft) 97,87 %
10.02.2020 20:50 7,2 C 6,1 C 5,6 C 85 % 995,1 hPa 0,0 l/m 0 min 0 min 0 W/m 19,3 km/h (3 Bft) 97,87 %
10.02.2020 20:52 7,2 C 6,1 C 5,6 C 85 % 995,1 hPa 0,0 l/m 0 min 0 min 0 W/m 35,4 km/h (5 Bft) 97,87 %
10.02.2020 20:54 7,2 C 6,1 C 5,6 C 85 % 995,1 hPa 0,0 l/m 0 min 2 min 0 W/m 29,0 km/h (5 Bft) 97,87 %
10.02.2020 20:56 7,2 C 5,6 C 5,6 C 85 % 995,1 hPa 0,0 l/m 0 min 2 min 0 W/m 25,7 km/h (4 Bft) 97,83 %
10.02.2020 20:58 7,2 C 5,6 C 5,0 C 86 % 994,9 hPa 0,0 l/m 0 min 2 min 0 W/m 25,7 km/h (4 Bft) 100,00 %
10.02.2020 21:00 7,2 C 5,6 C 5,0 C 86 % 995,0 hPa 0,0 l/m 0 min 2 min 0 W/m 35,4 km/h (5 Bft) 100,00 %
10.02.2020 21:02 7,2 C 5,6 C 5,0 C 86 % 994,9 hPa 0,0 l/m 0 min 2 min 0 W/m 48,3 km/h (6 Bft) 100,00 %
10.02.2020 21:04 7,1 C 5,6 C 5,0 C 87 % 995,1 hPa 0,0 l/m 0 min 2 min 0 W/m 38,6 km/h (5 Bft) 100,00 %
10.02.2020 21:06 7,1 C 5,0 C 5,0 C 87 % 995,0 hPa 0,0 l/m 0 min 2 min 0 W/m 32,2 km/h (5 Bft) 97,87 %
10.02.2020 21:08 7,0 C 5,0 C 4,4 C 87 % 994,9 hPa 0,2 l/m 0 min 2 min 0 W/m 35,4 km/h (5 Bft) 100,00 %
10.02.2020 21:10 6,9 C 4,4 C 4,4 C 88 % 994,9 hPa 0,0 l/m 0 min 2 min 0 W/m 32,2 km/h (5 Bft) 100,00 %
10.02.2020 21:12 6,8 C 4,4 C 4,4 C 88 % 994,8 hPa 0,2 l/m 0 min 2 min 0 W/m 25,7 km/h (4 Bft) 97,87 %
10.02.2020 21:14 6,8 C 4,4 C 4,4 C 89 % 994,6 hPa 0,0 l/m 0 min 2 min 0 W/m 29,0 km/h (5 Bft) 100,00 %
10.02.2020 21:16 6,7 C 4,4 C 4,4 C 89 % 994,6 hPa 0,0 l/m 0 min 2 min 0 W/m 22,5 km/h (4 Bft) 97,87 %
10.02.2020 21:18 6,7 C 4,4 C 4,4 C 90 % 994,7 hPa 0,0 l/m 0 min 2 min 0 W/m 19,3 km/h (3 Bft) 100,00 %
10.02.2020 21:20 6,6 C 4,4 C 4,4 C 90 % 994,6 hPa 0,0 l/m 0 min 2 min 0 W/m 38,6 km/h (5 Bft) 97,83 %
10.02.2020 21:22 6,5 C 5,0 C 4,4 C 90 % 994,6 hPa 0,0 l/m 0 min 2 min 0 W/m 38,6 km/h (5 Bft) 100,00 %
10.02.2020 21:24 6,5 C 5,0 C 4,4 C 91 % 994,6 hPa 0,0 l/m 0 min 2 min 0 W/m 35,4 km/h (5 Bft) 100,00 %
10.02.2020 21:26 6,5 C 5,0 C 4,4 C 91 % 994,5 hPa 0,0 l/m 0 min 0 min 0 W/m 25,7 km/h (4 Bft) 100,00 %
10.02.2020 21:28 6,4 C 5,0 C 4,4 C 91 % 994,5 hPa 0,0 l/m 0 min 0 min 0 W/m 57,9 km/h (7 Bft) 97,87 %
10.02.2020 21:30 6,4 C 5,0 C 4,4 C 91 % 994,5 hPa 0,0 l/m 0 min 0 min 0 W/m 22,5 km/h (4 Bft) 100,00 %
10.02.2020 21:32 6,4 C 5,0 C 4,4 C 91 % 994,5 hPa 0,0 l/m 0 min 2 min 0 W/m 41,8 km/h (6 Bft) 97,87 %
10.02.2020 21:34 6,4 C 4,4 C 4,4 C 91 % 994,4 hPa 0,0 l/m 0 min 2 min 0 W/m 35,4 km/h (5 Bft) 97,87 %
10.02.2020 21:36 6,3 C 4,4 C 4,4 C 92 % 994,7 hPa 0,0 l/m 0 min 2 min 0 W/m 25,7 km/h (4 Bft) 95,74 %
10.02.2020 21:38 6,3 C 4,4 C 4,4 C 92 % 994,8 hPa 0,4 l/m 0 min 2 min 0 W/m 25,7 km/h (4 Bft) 95,74 %
10.02.2020 21:40 6,3 C 4,4 C 4,4 C 92 % 994,4 hPa 0,2 l/m 0 min 2 min 0 W/m 29,0 km/h (5 Bft) 95,74 %
10.02.2020 21:42 6,3 C 4,4 C 4,4 C 92 % 994,5 hPa 0,2 l/m 0 min 2 min 0 W/m 29,0 km/h (5 Bft) 97,83 %
10.02.2020 21:44 6,3 C 4,4 C 4,4 C 92 % 994,6 hPa 0,2 l/m 0 min 2 min 0 W/m 16,1 km/h (3 Bft) 97,87 %
10.02.2020 21:46 6,3 C 4,4 C 4,4 C 92 % 994,6 hPa 0,2 l/m 0 min 2 min 0 W/m 29,0 km/h (5 Bft) 97,87 %
10.02.2020 21:48 6,3 C 4,4 C 4,4 C 93 % 994,5 hPa 0,0 l/m 0 min 2 min 0 W/m 25,7 km/h (4 Bft) 95,74 %
10.02.2020 21:50 6,2 C 4,4 C 4,4 C 93 % 994,5 hPa 0,2 l/m 0 min 2 min 0 W/m 19,3 km/h (3 Bft) 97,87 %
10.02.2020 21:52 6,2 C 4,4 C 4,4 C 93 % 994,5 hPa 0,0 l/m 0 min 0 min 0 W/m 25,7 km/h (4 Bft) 95,74 %
10.02.2020 21:54 6,2 C 4,4 C 4,4 C 93 % 994,6 hPa 0,0 l/m 0 min 0 min 0 W/m 16,1 km/h (3 Bft) 97,83 %
10.02.2020 21:56 6,2 C 5,0 C 4,4 C 93 % 994,9 hPa 0,0 l/m 0 min 0 min 0 W/m 9,7 km/h (2 Bft) 97,87 %
10.02.2020 21:58 6,2 C 5,0 C 4,4 C 93 % 995,1 hPa 0,0 l/m 0 min 2 min 0 W/m 19,3 km/h (3 Bft) 97,87 %
10.02.2020 22:00 6,2 C 5,0 C 4,4 C 94 % 995,0 hPa 0,0 l/m 0 min 2 min 0 W/m 3,2 km/h (1 Bft) 97,87 %
10.02.2020 22:02 6,2 C 5,0 C 4,4 C 94 % 995,0 hPa 0,0 l/m 0 min 2 min 0 W/m 38,6 km/h (5 Bft) 97,87 %
10.02.2020 22:04 6,2 C 5,0 C 4,4 C 94 % 994,9 hPa 0,0 l/m 0 min 2 min 0 W/m 29,0 km/h (5 Bft) 95,65 %
10.02.2020 22:06 6,1 C 5,0 C 4,4 C 94 % 994,9 hPa 0,0 l/m 0 min 2 min 0 W/m 29,0 km/h (5 Bft) 97,87 %
10.02.2020 22:08 6,1 C 5,0 C 4,4 C 94 % 995,1 hPa 0,0 l/m 0 min 2 min 0 W/m 25,7 km/h (4 Bft) 95,74 %
10.02.2020 22:10 6,1 C 3,9 C 3,9 C 94 % 995,1 hPa 0,0 l/m 0 min 2 min 0 W/m 19,3 km/h (3 Bft) 95,74 %
10.02.2020 22:12 5,8 C 3,9 C 3,3 C 93 % 995,1 hPa 0,0 l/m 0 min 0 min 0 W/m 19,3 km/h (3 Bft) 95,74 %
10.02.2020 22:14 5,7 C 3,3 C 3,3 C 93 % 995,1 hPa 0,0 l/m 0 min 0 min 0 W/m 12,9 km/h (3 Bft) 95,74 %
10.02.2020 22:16 5,5 C 3,3 C 3,3 C 93 % 995,1 hPa 0,0 l/m 0 min 0 min 0 W/m 19,3 km/h (3 Bft) 95,74 %
10.02.2020 22:18 5,4 C 3,9 C 3,3 C 93 % 995,2 hPa 0,0 l/m 0 min 0 min 0 W/m 22,5 km/h (4 Bft) 97,83 %
10.02.2020 22:20 5,3 C 3,9 C 3,9 C 93 % 995,1 hPa 0,0 l/m 0 min 0 min 0 W/m 25,7 km/h (4 Bft) 95,74 %
10.02.2020 22:22 5,4 C 4,4 C 3,9 C 93 % 995,2 hPa 0,0 l/m 0 min 0 min 0 W/m 32,2 km/h (5 Bft) 97,87 %
10.02.2020 22:24 5,4 C 4,4 C 3,9 C 94 % 995,3 hPa 0,0 l/m 0 min 0 min 0 W/m 29,0 km/h (5 Bft) 97,87 %
10.02.2020 22:26 5,5 C 4,4 C 3,9 C 94 % 995,2 hPa 0,0 l/m 0 min 0 min 0 W/m 25,7 km/h (4 Bft) 97,87 %
10.02.2020 22:28 5,6 C 4,4 C 3,9 C 94 % 995,3 hPa 0,0 l/m 0 min 0 min 0 W/m 35,4 km/h (5 Bft) 95,65 %
10.02.2020 22:30 5,6 C 4,4 C 3,9 C 94 % 995,3 hPa 0,0 l/m 0 min 0 min 0 W/m 25,7 km/h (4 Bft) 97,87 %
10.02.2020 22:32 5,6 C 4,4 C 3,9 C 94 % 995,1 hPa 0,0 l/m 0 min 0 min 0 W/m 25,7 km/h (4 Bft) 97,87 %
10.02.2020 22:34 5,6 C 4,4 C 3,9 C 93 % 995,2 hPa 0,0 l/m 0 min 0 min 0 W/m 35,4 km/h (5 Bft) 97,87 %
10.02.2020 22:36 5,6 C 4,4 C 3,9 C 93 % 995,1 hPa 0,0 l/m 0 min 0 min 0 W/m 29,0 km/h (5 Bft) 97,87 %
10.02.2020 22:38 5,6 C 4,4 C 3,9 C 93 % 995,2 hPa 0,0 l/m 0 min 0 min 0 W/m 35,4 km/h (5 Bft) 95,74 %
10.02.2020 22:40 5,6 C 4,4 C 3,9 C 93 % 995,2 hPa 0,0 l/m 0 min 0 min 0 W/m 19,3 km/h (3 Bft) 97,83 %
10.02.2020 22:42 5,7 C 4,4 C 3,9 C 93 % 995,2 hPa 0,0 l/m 0 min 0 min 0 W/m 12,9 km/h (3 Bft) 95,74 %
10.02.2020 22:44 5,7 C 4,4 C 3,9 C 93 % 995,4 hPa 0,0 l/m 0 min 2 min 0 W/m 35,4 km/h (5 Bft) 97,87 %
10.02.2020 22:46 5,7 C 4,4 C 3,9 C 93 % 995,9 hPa 0,2 l/m 0 min 2 min 0 W/m 25,7 km/h (4 Bft) 97,87 %
10.02.2020 22:48 5,7 C 3,9 C 3,3 C 93 % 995,7 hPa 0,2 l/m 0 min 2 min 0 W/m 54,7 km/h (7 Bft) 97,87 %
10.02.2020 22:50 5,7 C 3,9 C 3,3 C 92 % 995,9 hPa 0,2 l/m 0 min 2 min 0 W/m 41,8 km/h (6 Bft) 97,87 %
10.02.2020 22:52 5,6 C 3,9 C 3,3 C 92 % 995,4 hPa 0,4 l/m 0 min 2 min 0 W/m 25,7 km/h (4 Bft) 97,83 %
10.02.2020 22:54 5,5 C 3,9 C 3,3 C 92 % 995,3 hPa 0,2 l/m 0 min 2 min 0 W/m 35,4 km/h (5 Bft) 97,87 %
10.02.2020 22:56 5,4 C 3,9 C 3,3 C 92 % 995,5 hPa 0,0 l/m 0 min 2 min 0 W/m 45,1 km/h (6 Bft) 95,74 %
10.02.2020 22:58 5,4 C 3,9 C 3,3 C 92 % 995,5 hPa 0,0 l/m 0 min 2 min 0 W/m 22,5 km/h (4 Bft) 100,00 %
10.02.2020 23:00 5,3 C 3,9 C 3,3 C 93 % 995,6 hPa 0,0 l/m 0 min 2 min 0 W/m 67,6 km/h (8 Bft) 100,00 %
10.02.2020 23:02 5,3 C 3,9 C 3,3 C 93 % 995,8 hPa 0,2 l/m 0 min 2 min 0 W/m 35,4 km/h (5 Bft) 95,74 %
10.02.2020 23:04 5,3 C 3,9 C 3,3 C 93 % 996,0 hPa 0,0 l/m 0 min 2 min 0 W/m 16,1 km/h (3 Bft) 100,00 %
10.02.2020 23:06 5,2 C 3,9 C 3,3 C 93 % 996,2 hPa 0,2 l/m 0 min 2 min 0 W/m 35,4 km/h (5 Bft) 100,00 %
10.02.2020 23:08 5,2 C 3,3 C 3,3 C 93 % 996,5 hPa 0,4 l/m 0 min 2 min 0 W/m 25,7 km/h (4 Bft) 100,00 %
10.02.2020 23:10 5,1 C 3,3 C 3,3 C 93 % 996,6 hPa 0,2 l/m 0 min 2 min 0 W/m 19,3 km/h (3 Bft) 100,00 %
10.02.2020 23:12 5,1 C 3,3 C 3,3 C 93 % 996,5 hPa 0,2 l/m 0 min 2 min 0 W/m 19,3 km/h (3 Bft) 97,87 %
10.02.2020 23:14 5,0 C 3,3 C 2,8 C 93 % 996,5 hPa 0,0 l/m 0 min 2 min 0 W/m 16,1 km/h (3 Bft) 100,00 %
10.02.2020 23:16 4,9 C 3,3 C 2,8 C 93 % 996,5 hPa 0,0 l/m 0 min 2 min 0 W/m 35,4 km/h (5 Bft) 100,00 %
10.02.2020 23:18 4,8 C 3,3 C 2,8 C 94 % 996,7 hPa 0,0 l/m 0 min 2 min 0 W/m 19,3 km/h (3 Bft) 100,00 %
10.02.2020 23:20 4,8 C 3,3 C 2,8 C 94 % 996,7 hPa 0,0 l/m 0 min 2 min 0 W/m 32,2 km/h (5 Bft) 100,00 %
10.02.2020 23:22 4,7 C 3,3 C 2,8 C 94 % 996,8 hPa 0,2 l/m 0 min 2 min 0 W/m 32,2 km/h (5 Bft) 97,87 %
10.02.2020 23:24 4,7 C 3,3 C 2,8 C 94 % 996,7 hPa 0,0 l/m 0 min 2 min 0 W/m 25,7 km/h (4 Bft) 100,00 %
10.02.2020 23:26 4,6 C 2,8 C 2,8 C 94 % 996,5 hPa 0,0 l/m 0 min 2 min 0 W/m 35,4 km/h (5 Bft) 100,00 %
10.02.2020 23:28 4,6 C 2,8 C 2,8 C 94 % 996,7 hPa 0,0 l/m 0 min 2 min 0 W/m 48,3 km/h (6 Bft) 100,00 %
10.02.2020 23:30 4,5 C 2,8 C 2,8 C 94 % 996,9 hPa 0,2 l/m 0 min 2 min 0 W/m 32,2 km/h (5 Bft) 100,00 %
10.02.2020 23:32 4,4 C 2,8 C 2,8 C 94 % 996,9 hPa 0,0 l/m 0 min 2 min 0 W/m 25,7 km/h (4 Bft) 100,00 %
10.02.2020 23:34 4,4 C 2,8 C 2,8 C 94 % 996,9 hPa 0,2 l/m 0 min 2 min 0 W/m 19,3 km/h (3 Bft) 100,00 %
10.02.2020 23:36 4,3 C 2,8 C 2,8 C 94 % 996,9 hPa 0,0 l/m 0 min 2 min 0 W/m 19,3 km/h (3 Bft) 97,87 %
10.02.2020 23:38 4,3 C 2,8 C 2,8 C 94 % 996,9 hPa 0,0 l/m 0 min 2 min 0 W/m 29,0 km/h (5 Bft) 100,00 %
10.02.2020 23:40 4,3 C 2,8 C 2,8 C 94 % 996,7 hPa 0,0 l/m 0 min 2 min 0 W/m 19,3 km/h (3 Bft) 97,87 %
10.02.2020 23:42 4,2 C 2,8 C 2,2 C 94 % 996,7 hPa 0,0 l/m 0 min 2 min 0 W/m 19,3 km/h (3 Bft) 97,87 %
10.02.2020 23:44 4,2 C 2,8 C 2,2 C 94 % 996,7 hPa 0,0 l/m 0 min 2 min 0 W/m 38,6 km/h (5 Bft) 97,87 %
10.02.2020 23:46 4,1 C 2,8 C 2,2 C 94 % 996,5 hPa 0,0 l/m 0 min 2 min 0 W/m 16,1 km/h (3 Bft) 97,56 %
10.02.2020 23:48 4,1 C 2,8 C 2,2 C 94 % 996,5 hPa 0,0 l/m 0 min 2 min 0 W/m 25,7 km/h (4 Bft) 98,11 %
10.02.2020 23:50 4,0 C 2,8 C 2,2 C 94 % 996,7 hPa 0,0 l/m 0 min 0 min 0 W/m 29,0 km/h (5 Bft) 97,83 %
10.02.2020 23:52 3,9 C 2,8 C 2,2 C 94 % 996,9 hPa 0,0 l/m 0 min 0 min 0 W/m 19,3 km/h (3 Bft) 97,87 %
10.02.2020 23:54 3,9 C 2,8 C 2,2 C 94 % 997,0 hPa 0,0 l/m 0 min 0 min 0 W/m 22,5 km/h (4 Bft) 97,87 %
10.02.2020 23:56 3,9 C 2,8 C 2,2 C 94 % 996,9 hPa 0,0 l/m 0 min 0 min 0 W/m 16,1 km/h (3 Bft) 95,74 %
10.02.2020 23:58 3,9 C 2,8 C 2,2 C 94 % 996,4 hPa 0,0 l/m 0 min 0 min 0 W/m 12,9 km/h (3 Bft) 95,74 %
_ Min-Zeit 23:52 23:26 23:42 14:28 00:18 - - - - 22:00 09:14
Minimum _ 3,9 C 2,8 C 2,2 C 60 % 989,0 hPa - - - - 3,2 km/h (1 Bft) 46,15 %
_ Max-Zeit 00:00 14:24 12:48 00:04 13:44 06:46 09:06 00:08 12:54 16:48 01:00
Maximum _ 11,8 C 13,9 C 11,7 C 94 % 1001,7 hPa 0,6 l/m 2 min 4 min 523 W/m 70,8 km/h
S-SO (8 Bft)
100,00 %
Durchschnitt _ 8,3 C 7,5 C 6,7 C 82 % 995,9 hPa #9,6 l/m #1:30 h #8:10 h 122 W/m 31,5 km/h (5 Bft) 97,40 %
© 2020 W. Hausmann